EW4595 Weather Reports


Display with metric or nautical units.
time (UTC)temp
F
wind
direction
speed
MPH
gust
MPH
rain 1hr
in
rain 24hr
in
rain mn
in
humidity
%
barometer
mb
20260510051704 46 242 1.0 4.0 0.00 0.00 0.00 76 1022.2
20260510051605 46 245 2.0 4.0 0.00 0.00 0.00 76 1022.3
20260510051504 46 245 2.0 4.0 0.00 0.00 0.00 76 1022.4
20260510051405 46 245 2.0 4.0 0.00 0.00 0.00 76 1022.4
20260510051305 46 248 2.0 4.0 0.00 0.00 0.00 76 1022.2
20260510051203 46 255 2.0 4.0 0.00 0.00 0.00 76 1022.4
20260510051105 46 254 2.0 4.0 0.00 0.00 0.00 76 1022.1
20260510051005 46 255 2.0 2.0 0.00 0.00 0.00 76 1022.2
20260510050905 46 255 1.0 2.0 0.00 0.00 0.00 76 1022.5
20260510050805 46 254 1.0 2.0 0.00 0.00 0.00 76 1022.4
20260510050704 46 257 2.0 2.0 0.00 0.00 0.00 75 1022.2
20260510050604 46 254 2.0 4.0 0.00 0.00 0.00 75 1022.3
20260510050503 46 253 1.0 4.0 0.00 0.00 0.00 75 1022.3
20260510050404 46 254 1.0 4.0 0.00 0.00 0.00 75 1022.4
20260510050304 46 253 2.0 4.0 0.00 0.00 0.00 75 1022.5
20260510050204 46 255 2.0 4.0 0.00 0.00 0.00 75 1022.2
20260510050118 46 253 2.0 4.0 0.00 0.00 0.00 75 1022.7
20260510050104 46 253 3.0 4.0 0.00 0.00 0.00 75 1022.6
20260510050004 46 251 2.0 4.0 0.00 0.00 0.00 75 1022.4
20260510045916 46 249 2.0 4.0 0.00 0.00 0.00 75 1022.4
20260510045803 47 248 2.0 4.0 0.00 0.00 0.00 75 1022.4
20260510045605 47 239 3.0 4.0 0.00 0.00 0.00 75 1022.4
20260510045504 47 240 2.0 4.0 0.00 0.00 0.00 75 1022.5
20260510045404 47 245 2.0 4.0 0.00 0.00 0.00 74 1022.7
20260510045306 47 240 1.0 4.0 0.00 0.00 0.00 74 1022.5
20260510045205 47 238 0.0 4.0 0.00 0.00 0.00 74 1022.5
20260510045104 47 239 2.0 4.0 0.00 0.00 0.00 74 1022.5
20260510045003 47 243 1.0 4.0 0.00 0.00 0.00 74 1022.8
20260510044903 47 244 2.0 6.0 0.00 0.00 0.00 74 1022.6
20260510044805 47 252 2.0 6.0 0.00 0.00 0.00 74 1022.4
20260510044703 47 255 2.0 6.0 0.00 0.00 0.00 74 1022.6
20260510044605 47 257 2.0 6.0 0.00 0.00 0.00 74 1022.5
20260510044506 47 257 2.0 6.0 0.00 0.00 0.00 73 1022.5
20260510044408 47 260 3.0 6.0 0.00 0.00 0.00 73 1022.5
20260510044303 47 258 2.0 2.0 0.00 0.00 0.00 73 1022.5
20260510044103 48 262 1.0 4.0 0.00 0.00 0.00 72 1022.5
20260510044006 48 261 1.0 4.0 0.00 0.00 0.00 72 1022.7
20260510043905 48 261 1.0 4.0 0.00 0.00 0.00 72 1022.7
20260510043803 48 262 2.0 4.0 0.00 0.00 0.00 72 1022.5
20260510043703 48 263 2.0 4.0 0.00 0.00 0.00 71 1022.4
20260510043606 48 255 3.0 4.0 0.00 0.00 0.00 72 1022.6
20260510043503 48 247 2.0 4.0 0.00 0.00 0.00 71 1022.7
20260510043403 48 239 2.0 4.0 0.00 0.00 0.00 71 1022.7
20260510043305 48 230 2.0 4.0 0.00 0.00 0.00 71 1022.6
20260510043203 48 229 2.0 4.0 0.00 0.00 0.00 71 1022.6
20260510043116 48 231 2.0 4.0 0.00 0.00 0.00 71 1022.8
20260510043103 48 233 2.0 4.0 0.00 0.00 0.00 71 1022.8
20260510043003 48 236 2.0 4.0 0.00 0.00 0.00 71 1022.6
20260510042817 48 238 3.0 4.0 0.00 0.00 0.00 71 1022.5
20260510042803 48 240 3.0 4.0 0.00 0.00 0.00 71 1022.5
20260510042703 48 243 3.0 4.0 0.00 0.00 0.00 71 1022.6
20260510042504 48 247 2.0 6.0 0.00 0.00 0.00 70 1022.8
20260510042405 48 248 3.0 6.0 0.00 0.00 0.00 70 1022.6
20260510042306 49 251 2.0 6.0 0.00 0.00 0.00 70 1022.8
20260510042203 49 246 2.0 6.0 0.00 0.00 0.00 70 1022.7
20260510042117 49 249 2.0 6.0 0.00 0.00 0.00 70 1022.8
20260510042004 49 240 3.0 6.0 0.00 0.00 0.00 70 1022.7
20260510041804 49 234 3.0 6.0 0.00 0.00 0.00 70 1022.7
20260510041704 49 235 3.0 6.0 0.00 0.00 0.00 70 1022.6
20260510041636 49 232 3.0 6.0 0.00 0.00 0.00 70 1022.6
20260510041514 49 236 2.0 6.0 0.00 0.00 0.00 70 1022.9
20260510041504 49 233 2.0 6.0 0.00 0.00 0.00 70 1022.9
20260510041405 49 231 2.0 6.0 0.00 0.00 0.00 70 1022.7
20260510041206 49 247 4.0 6.0 0.00 0.00 0.00 70 1022.5
20260510041003 49 239 2.0 4.0 0.00 0.00 0.00 71 1022.6
20260510040917 49 235 2.0 4.0 0.00 0.00 0.00 71 1022.6
20260510040903 49 234 2.0 4.0 0.00 0.00 0.00 71 1022.6
20260510040605 49 240 3.0 6.0 0.00 0.00 0.00 71 1022.5
20260510040503 49 242 2.0 6.0 0.00 0.00 0.00 71 1022.6
20260510040414 49 245 2.0 6.0 0.00 0.00 0.00 71 1022.6
20260510040405 49 246 2.0 6.0 0.00 0.00 0.00 71 1022.6
20260510040303 49 245 3.0 6.0 0.00 0.00 0.00 70 1022.8
20260510040105 49 240 4.0 6.0 0.00 0.00 0.00 70 1022.4
20260510040004 49 236 2.0 6.0 0.00 0.00 0.00 71 1022.5
20260510035904 49 232 2.0 4.0 0.00 0.00 0.00 71 1022.6
20260510035805 49 236 2.0 4.0 0.00 0.00 0.00 71 1022.3
20260510035705 49 237 2.0 4.0 0.00 0.00 0.00 71 1022.6
20260510035604 49 235 2.0 4.0 0.00 0.00 0.00 70 1022.7
20260510035504 49 233 2.0 4.0 0.00 0.00 0.00 70 1022.7
20260510035405 49 233 2.0 4.0 0.00 0.00 0.00 70 1022.4
20260510035306 49 233 3.0 4.0 0.00 0.00 0.00 70 1022.5
20260510035204 50 232 2.0 4.0 0.00 0.00 0.00 70 1022.5
20260510035103 50 227 2.0 4.0 0.00 0.00 0.00 70 1022.3
20260510035005 50 229 2.0 4.0 0.00 0.00 0.00 70 1022.6
20260510034904 50 233 2.0 4.0 0.00 0.00 0.00 70 1022.6
20260510034805 50 231 2.0 4.0 0.00 0.00 0.00 69 1022.0
20260510034703 50 232 2.0 4.0 0.00 0.00 0.00 69 1022.2
20260510034604 50 236 2.0 4.0 0.00 0.00 0.00 70 1022.6
20260510034504 50 233 3.0 4.0 0.00 0.00 0.00 69 1022.4
20260510034404 50 233 3.0 4.0 0.00 0.00 0.00 69 1022.3
20260510034305 50 236 2.0 4.0 0.00 0.00 0.00 70 1022.4
20260510034205 50 236 2.0 4.0 0.00 0.00 0.00 69 1022.4
20260510034104 50 237 2.0 4.0 0.00 0.00 0.00 69 1022.3
20260510034004 50 241 2.0 4.0 0.00 0.00 0.00 69 1022.5
20260510033904 50 241 2.0 4.0 0.00 0.00 0.00 69 1022.4
20260510033804 50 240 2.0 4.0 0.00 0.00 0.00 69 1022.5
20260510033510 50 243 3.0 4.0 0.00 0.00 0.00 69 1022.5
20260510033404 50 242 2.0 4.0 0.00 0.00 0.00 69 1022.2
20260510033303 50 240 2.0 7.0 0.00 0.00 0.00 69 1022.3
20260510033207 50 243 2.0 7.0 0.00 0.00 0.00 68 1022.5
20260510033004 51 234 3.0 7.0 0.00 0.00 0.00 68 1022.4
20260510032903 51 237 3.0 7.0 0.00 0.00 0.00 68 1022.5
20260510032803 51 234 5.0 7.0 0.00 0.00 0.00 67 1022.4
20260510032705 51 230 3.0 7.0 0.00 0.00 0.00 68 1022.4
20260510032605 51 231 3.0 7.0 0.00 0.00 0.00 68 1022.5
20260510032404 51 229 2.0 7.0 0.00 0.00 0.00 68 1022.3
20260510032306 51 232 3.0 7.0 0.00 0.00 0.00 69 1022.6
20260510032203 51 235 3.0 7.0 0.00 0.00 0.00 69 1022.4
20260510032005 51 233 3.0 8.0 0.00 0.00 0.00 69 1022.3
20260510031903 51 246 2.0 8.0 0.00 0.00 0.00 69 1022.5
20260510031804 51 244 2.0 8.0 0.00 0.00 0.00 68 1022.4
20260510031703 51 243 3.0 8.0 0.00 0.00 0.00 68 1022.7
20260510031603 51 245 5.0 8.0 0.00 0.00 0.00 68 1022.2
20260510031516 50 254 4.0 7.0 0.00 0.00 0.00 69 1022.4
20260510031503 50 258 4.0 7.0 0.00 0.00 0.00 69 1022.4
20260510031405 50 234 2.0 4.0 0.00 0.00 0.00 71 1022.6
20260510031205 50 237 2.0 6.0 0.00 0.00 0.00 71 1022.7
20260510031103 51 230 2.0 6.0 0.00 0.00 0.00 71 1022.7
20260510030917 51 229 4.0 6.0 0.00 0.00 0.00 71 1022.7
20260510030905 51 230 4.0 6.0 0.00 0.00 0.00 71 1022.7
20260510030805 51 231 4.0 6.0 0.00 0.00 0.00 71 1022.9
20260510030714 51 229 2.0 6.0 0.00 0.00 0.00 71 1022.6
20260510030605 51 233 2.0 6.0 0.00 0.00 0.00 71 1022.8
20260510030305 51 248 3.0 6.0 0.00 0.00 0.00 71 1022.8
20260510030204 51 250 3.0 6.0 0.00 0.00 0.00 72 1022.8
20260510030104 51 250 3.0 6.0 0.00 0.00 0.00 72 1022.7
20260510030015 51 253 2.0 6.0 0.00 0.00 0.00 72 1022.8
20260510030006 51 255 2.0 6.0 0.00 0.00 0.00 72 1022.8
20260510025904 51 252 2.0 6.0 0.00 0.00 0.00 72 1022.7
20260510025704 51 250 4.0 6.0 0.00 0.00 0.00 72 1022.7
20260510025604 51 250 3.0 6.0 0.00 0.00 0.00 72 1022.8
20260510025505 51 244 2.0 7.0 0.00 0.00 0.00 73 1022.8
20260510025416 51 239 4.0 7.0 0.00 0.00 0.00 73 1022.5
20260510025404 51 238 4.0 7.0 0.00 0.00 0.00 73 1022.5
20260510025306 51 232 3.0 7.0 0.00 0.00 0.00 73 1022.8
20260510025104 51 233 2.0 7.0 0.00 0.00 0.00 73 1022.7
20260510025004 51 231 4.0 7.0 0.00 0.00 0.00 72 1022.7
20260510024905 51 231 2.0 8.0 0.00 0.00 0.00 73 1022.9
20260510024805 51 236 2.0 8.0 0.00 0.00 0.00 73 1022.8
20260510024704 51 238 2.0 8.0 0.00 0.00 0.00 73 1022.9
20260510024603 51 232 3.0 8.0 0.00 0.00 0.00 72 1023.0
20260510024507 51 233 4.0 8.0 0.00 0.00 0.00 72 1022.9
20260510024403 51 230 3.0 8.0 0.00 0.00 0.00 73 1022.9
20260510024305 51 230 2.0 7.0 0.00 0.00 0.00 73 1022.9
20260510024204 51 228 2.0 7.0 0.00 0.00 0.00 73 1022.8
20260510024118 51 225 3.0 7.0 0.00 0.00 0.00 73 1022.9
20260510024005 50 231 4.0 7.0 0.00 0.00 0.00 74 1022.9
20260510023804 51 243 4.0 7.0 0.00 0.00 0.00 74 1022.8
20260510023717 51 240 4.0 6.0 0.00 0.00 0.00 74 1022.7
20260510023704 51 244 4.0 6.0 0.00 0.00 0.00 74 1022.7
20260510023514 51 255 3.0 4.0 0.00 0.00 0.00 75 1022.9
20260510023403 51 254 2.0 4.0 0.00 0.00 0.00 75 1022.8
20260510023204 51 250 3.0 4.0 0.00 0.00 0.00 75 1023.0
20260510023105 51 243 4.0 4.0 0.00 0.00 0.00 75 1022.8
20260510023003 51 242 1.0 4.0 0.00 0.00 0.00 75 1022.6
20260510022903 51 247 2.0 4.0 0.00 0.00 0.00 74 1022.6
20260510022803 51 251 2.0 4.0 0.00 0.00 0.00 74 1022.7
20260510022705 51 241 3.0 4.0 0.00 0.00 0.00 74 1022.7
20260510022605 51 241 3.0 6.0 0.00 0.00 0.00 74 1022.9
20260510022515 51 235 2.0 6.0 0.00 0.00 0.00 74 1023.0
20260510022503 51 233 2.0 6.0 0.00 0.00 0.00 74 1023.0
20260510022405 51 227 2.0 6.0 0.00 0.00 0.00 74 1022.7
20260510022204 51 228 3.0 6.0 0.00 0.00 0.00 74 1022.9
20260510022103 51 222 2.0 6.0 0.00 0.00 0.00 74 1022.8
20260510022005 51 226 2.0 6.0 0.00 0.00 0.00 74 1022.7
20260510021903 51 229 2.0 6.0 0.00 0.00 0.00 73 1022.8
20260510021804 51 234 2.0 4.0 0.00 0.00 0.00 73 1022.7
20260510021703 51 233 3.0 7.0 0.00 0.00 0.00 73 1022.7
20260510021603 51 235 2.0 7.0 0.00 0.00 0.00 73 1023.0
20260510021516 51 234 2.0 7.0 0.00 0.00 0.00 73 1022.7
20260510021503 51 233 2.0 7.0 0.00 0.00 0.00 73 1022.7
20260510021404 51 233 2.0 7.0 0.00 0.00 0.00 72 1022.8
20260510021203 51 241 4.0 7.0 0.00 0.00 0.00 72 1022.6
20260510021104 51 242 2.0 6.0 0.00 0.00 0.00 72 1022.8
20260510021004 51 251 3.0 6.0 0.00 0.00 0.00 72 1022.8
20260510020904 51 252 2.0 4.0 0.00 0.00 0.00 72 1022.9
20260510020816 51 238 2.0 4.0 0.00 0.00 0.00 72 1022.4
20260510020807 51 240 2.0 4.0 0.00 0.00 0.00 72 1022.4
20260510020705 51 229 2.0 6.0 0.00 0.00 0.00 72 1022.8
20260510020504 51 227 1.0 6.0 0.00 0.00 0.00 71 1023.0
20260510020404 51 227 2.0 6.0 0.00 0.00 0.00 71 1022.7
20260510020204 51 229 2.0 6.0 0.00 0.00 0.00 71 1022.6
20260510020105 51 228 3.0 6.0 0.00 0.00 0.00 71 1022.6
20260510020006 51 227 2.0 6.0 0.00 0.00 0.00 71 1022.6
20260510015904 51 230 2.0 6.0 0.00 0.00 0.00 71 1022.8
20260510015804 51 233 2.0 6.0 0.00 0.00 0.00 71 1023.0
20260510015704 51 238 4.0 6.0 0.00 0.00 0.00 71 1022.7
20260510015604 51 244 2.0 6.0 0.00 0.00 0.00 71 1022.8
20260510015509 51 245 2.0 6.0 0.00 0.00 0.00 71 1022.6
20260510015405 51 244 2.0 6.0 0.00 0.00 0.00 71 1022.7
20260510015205 51 243 2.0 6.0 0.00 0.00 0.00 71 1022.6
20260510015105 51 243 2.0 4.0 0.00 0.00 0.00 71 1022.6
20260510015003 51 241 3.0 4.0 0.00 0.00 0.00 71 1022.6
20260510014906 51 236 2.0 4.0 0.00 0.00 0.00 71 1022.7
20260510014805 51 234 1.0 4.0 0.00 0.00 0.00 71 1022.5
20260510014604 51 228 2.0 7.0 0.00 0.00 0.00 70 1022.6
20260510014504 51 231 2.0 7.0 0.00 0.00 0.00 70 1022.8
20260510014404 51 232 3.0 7.0 0.00 0.00 0.00 70 1022.7
20260510014303 51 235 3.0 7.0 0.00 0.00 0.00 70 1022.5
20260510014204 51 239 2.0 7.0 0.00 0.00 0.00 69 1022.6
20260510014103 51 239 4.0 7.0 0.00 0.00 0.00 69 1022.8
20260510014006 51 241 3.0 7.0 0.00 0.00 0.00 69 1022.8
20260510013904 51 248 3.0 7.0 0.00 0.00 0.00 69 1023.0
20260510013805 51 253 4.0 7.0 0.00 0.00 0.00 68 1022.7
20260510013603 51 266 2.0 7.0 0.00 0.00 0.00 68 1022.4
20260510013506 51 255 2.0 7.0 0.00 0.00 0.00 68 1022.7
20260510013403 51 244 3.0 6.0 0.00 0.00 0.00 67 1022.8
20260510013303 51 235 2.0 6.0 0.00 0.00 0.00 67 1022.6
20260510013203 51 231 3.0 6.0 0.00 0.00 0.00 67 1022.6
20260510013104 51 227 3.0 6.0 0.00 0.00 0.00 67 1022.4
20260510013005 51 232 3.0 6.0 0.00 0.00 0.00 66 1022.3
20260510012905 51 235 2.0 6.0 0.00 0.00 0.00 66 1022.3
20260510012805 51 240 2.0 6.0 0.00 0.00 0.00 66 1022.5
20260510012703 51 237 3.0 6.0 0.00 0.00 0.00 66 1022.6
20260510012604 51 230 2.0 8.0 0.00 0.00 0.00 66 1022.5
20260510012516 51 229 4.0 8.0 0.00 0.00 0.00 65 1022.7
20260510012504 51 230 4.0 8.0 0.00 0.00 0.00 65 1022.7
20260510012405 51 230 3.0 8.0 0.00 0.00 0.00 65 1022.6
20260510012204 51 232 5.0 11.0 0.00 0.00 0.00 65 1022.4
20260510012103 51 240 4.0 11.0 0.00 0.00 0.00 65 1022.3
20260510012004 51 240 3.0 11.0 0.00 0.00 0.00 66 1022.4
20260510011903 51 240 3.0 11.0 0.00 0.00 0.00 66 1022.5
20260510011816 51 241 3.0 11.0 0.00 0.00 0.00 65 1022.5
20260510011803 51 242 3.0 11.0 0.00 0.00 0.00 65 1022.3
20260510011705 51 247 4.0 11.0 0.00 0.00 0.00 65 1022.5
20260510011505 51 246 3.0 8.0 0.00 0.00 0.00 66 1022.3
20260510011404 51 248 4.0 8.0 0.00 0.00 0.00 66 1022.4
20260510011304 51 243 2.0 8.0 0.00 0.00 0.00 67 1022.3
20260510011206 51 234 2.0 8.0 0.00 0.00 0.00 67 1022.5
20260510011104 51 234 3.0 8.0 0.00 0.00 0.00 67 1022.2
20260510011005 51 237 2.0 8.0 0.00 0.00 0.00 67 1022.5
20260510010905 51 232 2.0 8.0 0.00 0.00 0.00 67 1022.4
20260510010803 51 232 3.0 8.0 0.00 0.00 0.00 67 1022.3
20260510010604 51 231 4.0 8.0 0.00 0.00 0.00 66 1022.3
20260510010504 51 237 4.0 8.0 0.00 0.00 0.00 66 1022.4
20260510010404 51 239 3.0 11.0 0.00 0.00 0.00 66 1022.5
20260510010305 52 242 4.0 11.0 0.00 0.00 0.00 65 1022.3
20260510010205 52 234 3.0 11.0 0.00 0.00 0.00 65 1022.2
20260510010103 52 232 4.0 11.0 0.00 0.00 0.00 64 1022.3
20260510010016 52 225 5.0 11.0 0.00 0.00 0.00 64 1022.2
20260510010004 52 222 5.0 11.0 0.00 0.00 0.00 64 1022.2
20260510005903 52 223 6.0 11.0 0.00 0.00 0.00 64 1022.3
20260510005704 52 246 3.0 9.0 0.00 0.00 0.00 65 1022.2
20260510005605 52 252 4.0 9.0 0.00 0.00 0.00 66 1022.2
20260510005504 51 256 4.0 9.0 0.00 0.00 0.00 66 1022.5
20260510005417 51 271 4.0 9.0 0.00 0.00 0.00 67 1022.2
20260510005405 51 266 4.0 9.0 0.00 0.00 0.00 68 1022.4
20260510005308 51 208 4.0 9.0 0.00 0.00 0.00 69 1022.1
20260510005103 51 220 2.0 11.0 0.00 0.00 0.00 69 1022.3
20260510005004 51 221 2.0 13.0 0.00 0.00 0.00 69 1022.3
20260510004904 51 219 4.0 13.0 0.00 0.00 0.00 69 1022.4
20260510004805 51 221 4.0 13.0 0.00 0.00 0.00 69 1022.1
20260510004704 51 219 6.0 13.0 0.00 0.00 0.00 69 1022.4
20260510004621 51 215 4.0 13.0 0.00 0.00 0.00 70 1022.2
20260510004606 51 215 5.0 13.0 0.00 0.00 0.00 71 1022.4
20260510004515 51 214 2.0 9.0 0.00 0.00 0.00 71 1022.3
20260510004503 51 215 2.0 9.0 0.00 0.00 0.00 71 1022.3
20260510004413 51 218 3.0 9.0 0.00 0.00 0.00 71 1022.4
20260510004103 51 250 4.0 9.0 0.00 0.00 0.00 72 1022.1
20260510004004 51 252 2.0 7.0 0.00 0.00 0.00 72 1022.3
20260510003903 51 251 4.0 7.0 0.00 0.00 0.00 72 1022.2
20260510003805 51 245 2.0 9.0 0.00 0.00 0.00 73 1022.4
20260510003704 51 240 3.0 9.0 0.00 0.00 0.00 73 1022.3
20260510003603 51 238 3.0 9.0 0.00 0.00 0.00 73 1022.4
20260510003507 51 235 2.0 9.0 0.00 0.00 0.00 73 1022.3
20260510003403 51 232 2.0 9.0 0.00 0.00 0.00 73 1022.2
20260510003303 51 234 6.0 9.0 0.00 0.00 0.00 73 1022.3
20260510003203 51 231 3.0 8.0 0.00 0.00 0.00 73 1022.3
20260510003104 51 228 3.0 8.0 0.00 0.00 0.00 73 1022.1
20260510003007 51 231 3.0 8.0 0.00 0.00 0.00 73 1022.4
20260510002804 51 249 4.0 9.0 0.00 0.00 0.00 73 1022.2
20260510002714 51 249 4.0 9.0 0.00 0.00 0.00 73 1022.2
20260510002703 51 251 3.0 9.0 0.00 0.00 0.00 74 1022.1
20260510002604 51 253 2.0 9.0 0.00 0.00 0.00 74 1022.1
20260510002404 51 249 6.0 11.0 0.00 0.00 0.00 74 1022.2
20260510002307 51 241 6.0 11.0 0.00 0.00 0.00 74 1022.2
20260510002205 51 238 2.0 11.0 0.00 0.00 0.00 74 1022.0
20260510002103 51 238 4.0 11.0 0.00 0.00 0.00 74 1021.9
20260510002005 51 234 5.0 11.0 0.00 0.00 0.00 74 1022.1
20260510001905 51 233 6.0 11.0 0.00 0.00 0.00 75 1022.0
20260510001804 51 235 5.0 9.0 0.00 0.00 0.00 75 1022.0
20260510001704 51 241 5.0 9.0 0.00 0.00 0.00 75 1022.2
20260510001604 51 241 4.0 8.0 0.00 0.00 0.00 76 1021.9
20260510001506 51 245 4.0 8.0 0.00 0.00 0.00 76 1022.0
20260510001404 51 245 2.0 8.0 0.00 0.00 0.00 76 1022.0
20260510001304 51 238 2.0 8.0 0.00 0.00 0.00 76 1022.1
20260510001205 51 236 2.0 8.0 0.00 0.00 0.00 76 1022.0
20260510001106 51 233 4.0 8.0 0.00 0.00 0.00 76 1021.8
20260510001004 51 228 4.0 8.0 0.00 0.00 0.00 77 1021.9
20260510000804 51 234 5.0 8.0 0.00 0.00 0.00 77 1022.0
20260510000704 51 227 3.0 7.0 0.00 0.00 0.00 78 1022.0
20260510000606 51 219 2.0 7.0 0.00 0.00 0.00 78 1021.9
20260510000503 51 223 3.0 7.0 0.00 0.00 0.00 78 1022.1
20260510000404 51 226 4.0 7.0 0.00 0.00 0.00 78 1021.9
20260510000304 50 217 4.0 7.0 0.00 0.00 0.00 78 1021.9
20260510000204 50 237 4.0 6.0 0.00 0.00 0.00 79 1021.8
20260510000113 50 252 3.0 8.0 0.00 0.00 0.00 79 1021.9
20260510000104 50 253 3.0 8.0 0.00 0.00 0.00 79 1021.9
20260510000017 50 247 3.0 8.0 0.00 0.00 0.00 79 1021.9
20260510000004 50 244 3.0 8.0 0.00 0.00 0.00 79 1021.9
20260509235915 50 234 4.0 8.0 0.00 0.00 0.00 79 1021.7
20260509235717 50 228 3.0 11.0 0.00 0.00 0.00 79 1021.9
20260509235606 50 217 6.0 11.0 0.00 0.00 0.00 79 1021.7
20260509235403 50 227 3.0 11.0 0.00 0.00 0.00 79 1021.8
20260509235317 50 226 5.0 11.0 0.00 0.00 0.00 79 1021.6
20260509235306 50 227 5.0 11.0 0.00 0.00 0.00 79 1021.6
20260509235205 50 235 8.0 11.0 0.00 0.00 0.00 79 1021.8
20260509235003 50 245 3.0 7.0 0.00 0.00 0.00 79 1021.6
20260509234916 50 248 2.0 7.0 0.00 0.00 0.00 79 1021.6
20260509234903 50 247 2.0 7.0 0.00 0.00 0.00 79 1021.6
20260509234815 50 242 2.0 7.0 0.00 0.00 0.00 79 1021.6
20260509234804 50 240 2.0 7.0 0.00 0.00 0.00 79 1021.6
20260509234617 50 228 3.0 7.0 0.00 0.00 0.00 79 1021.7
20260509234508 50 214 3.0 7.0 0.00 0.00 0.00 79 1021.5
20260509234304 50 209 3.0 8.0 0.00 0.00 0.00 79 1021.5
20260509234216 50 212 2.0 8.0 0.00 0.00 0.00 79 1021.6
20260509234205 50 216 3.0 8.0 0.00 0.00 0.00 79 1021.5
20260509234103 50 224 3.0 9.0 0.00 0.00 0.00 79 1021.3
20260509234013 50 229 3.0 9.0 0.00 0.00 0.00 79 1021.5
20260509233903 50 226 5.0 11.0 0.00 0.00 0.00 79 1021.2
20260509233714 50 243 4.0 11.0 0.00 0.00 0.00 79 1021.4
20260509233704 50 241 4.0 11.0 0.00 0.00 0.00 79 1021.4
20260509233604 50 241 5.0 11.0 0.00 0.00 0.00 79 1021.4
20260509233516 50 241 4.0 11.0 0.00 0.00 0.00 79 1021.4
20260509233404 50 242 6.0 11.0 0.00 0.00 0.00 79 1021.4
20260509233203 50 244 4.0 7.0 0.00 0.00 0.00 79 1021.4
20260509233105 50 244 3.0 7.0 0.00 0.00 0.00 79 1021.0
20260509233005 50 243 4.0 7.0 0.00 0.00 0.00 79 1021.4
20260509232904 50 250 4.0 7.0 0.00 0.00 0.00 80 1021.1
20260509232707 50 247 4.0 6.0 0.00 0.00 0.00 80 1021.2
20260509232604 50 243 4.0 6.0 0.00 0.00 0.00 80 1021.2
20260509232517 50 241 2.0 4.0 0.00 0.00 0.00 80 1021.1
20260509232504 50 243 2.0 4.0 0.00 0.00 0.00 80 1021.1
20260509232204 50 243 3.0 8.0 0.00 0.00 0.00 80 1021.0
20260509232103 50 247 2.0 8.0 0.00 0.00 0.00 80 1021.2
20260509232004 50 247 2.0 8.0 0.00 0.00 0.00 79 1021.1
20260509231906 50 247 5.0 8.0 0.00 0.00 0.00 80 1021.4
20260509231804 50 247 2.0 7.0 0.00 0.00 0.00 80 1021.0
20260509231704 50 236 3.0 7.0 0.00 0.00 0.00 79 1021.1
20260509231603 50 238 3.0 7.0 0.00 0.00 0.00 79 1021.1
20260509231504 50 237 4.0 7.0 0.00 0.00 0.00 80 1021.1
20260509231404 50 241 4.0 7.0 0.00 0.00 0.00 80 1021.1
20260509231304 50 241 4.0 7.0 0.00 0.00 0.00 80 1021.0
20260509231219 50 244 4.0 7.0 0.00 0.00 0.00 80 1021.0
20260509231205 50 245 4.0 7.0 0.00 0.00 0.00 80 1021.0
20260509231104 50 239 2.0 7.0 0.00 0.00 0.00 80 1020.9
20260509230903 50 239 4.0 7.0 0.00 0.00 0.00 79 1021.0
20260509230805 50 247 4.0 7.0 0.00 0.00 0.00 79 1020.9
20260509230703 50 245 2.0 7.0 0.00 0.00 0.00 79 1021.1
20260509230604 50 240 3.0 7.0 0.00 0.00 0.00 79 1020.9
20260509230505 50 241 3.0 7.0 0.00 0.00 0.00 79 1020.9
20260509230405 50 239 4.0 8.0 0.00 0.00 0.00 79 1020.9
20260509230303 50 238 4.0 8.0 0.00 0.00 0.00 79 1021.0
20260509230204 50 242 4.0 8.0 0.00 0.00 0.00 79 1020.8
20260509230103 50 252 4.0 8.0 0.00 0.00 0.00 79 1021.0
20260509230006 51 251 4.0 8.0 0.00 0.00 0.00 79 1021.1
20260509225904 51 251 4.0 8.0 0.00 0.00 0.00 79 1021.1
20260509225803 51 251 5.0 7.0 0.00 0.00 0.00 79 1021.2
20260509225704 51 250 3.0 7.0 0.00 0.00 0.00 79 1020.9
20260509225605 51 245 3.0 7.0 0.00 0.00 0.00 79 1020.8
20260509225503 51 241 2.0 7.0 0.00 0.00 0.00 79 1020.8
20260509225404 51 238 4.0 7.0 0.00 0.00 0.00 78 1020.8
20260509225306 51 241 4.0 7.0 0.00 0.00 0.00 78 1020.8
20260509225204 51 237 4.0 7.0 0.00 0.00 0.00 78 1020.9
20260509225108 51 237 4.0 7.0 0.00 0.00 0.00 78 1020.8
20260509225018 51 240 4.0 7.0 0.00 0.00 0.00 78 1020.9
20260509225003 51 241 4.0 7.0 0.00 0.00 0.00 78 1020.8
20260509224917 51 249 3.0 7.0 0.00 0.00 0.00 78 1020.7
20260509224903 51 248 3.0 7.0 0.00 0.00 0.00 78 1020.7
20260509224603 51 238 4.0 8.0 0.00 0.00 0.00 78 1020.8
20260509224503 51 236 3.0 9.0 0.00 0.00 0.00 78 1020.5
20260509224403 51 238 4.0 11.0 0.00 0.00 0.00 78 1020.7
20260509224305 51 240 4.0 11.0 0.00 0.00 0.00 78 1020.7
20260509224206 51 239 4.0 11.0 0.00 0.00 0.00 78 1020.7
20260509224103 51 246 5.0 11.0 0.00 0.00 0.00 78 1020.6
20260509224004 51 248 6.0 11.0 0.00 0.00 0.00 78 1020.6
20260509223904 51 240 3.0 11.0 0.00 0.00 0.00 78 1020.6
20260509223804 51 245 4.0 9.0 0.00 0.00 0.00 78 1020.8
20260509223704 51 246 4.0 9.0 0.00 0.00 0.00 78 1020.6
20260509223604 51 243 5.0 9.0 0.00 0.00 0.00 78 1020.8
20260509223504 51 247 4.0 9.0 0.00 0.00 0.00 78 1020.5
20260509223407 51 256 4.0 9.0 0.00 0.00 0.00 78 1020.5
20260509223304 51 252 4.0 9.0 0.00 0.00 0.00 78 1020.5
20260509223204 51 253 4.0 9.0 0.00 0.00 0.00 78 1020.5
20260509223104 51 254 4.0 9.0 0.00 0.00 0.00 78 1020.6
20260509222904 51 250 5.0 9.0 0.00 0.00 0.00 78 1020.4
20260509222804 51 246 4.0 7.0 0.00 0.00 0.00 79 1020.6
20260509222607 51 234 3.0 8.0 0.00 0.00 0.00 79 1020.5
20260509222507 51 231 4.0 8.0 0.00 0.00 0.00 79 1020.5
20260509222404 51 231 2.0 8.0 0.00 0.00 0.00 79 1020.5
20260509222307 51 233 2.0 8.0 0.00 0.00 0.00 79 1020.5
20260509222204 51 237 5.0 8.0 0.00 0.00 0.00 79 1020.3
20260509222107 51 239 3.0 6.0 0.00 0.00 0.00 79 1020.2
20260509222004 51 241 3.0 6.0 0.00 0.00 0.00 79 1020.4
20260509221903 51 238 2.0 6.0 0.00 0.00 0.00 79 1020.4
20260509221804 51 238 3.0 6.0 0.00 0.00 0.00 79 1020.2
20260509221604 51 235 3.0 6.0 0.00 0.00 0.00 79 1020.4
20260509221504 51 233 2.0 6.0 0.00 0.00 0.00 79 1020.4
20260509221417 51 238 3.0 6.0 0.00 0.00 0.00 79 1020.5
20260509221404 51 241 4.0 6.0 0.00 0.00 0.00 79 1020.3
20260509221307 51 245 3.0 7.0 0.00 0.00 0.00 79 1020.2
20260509221104 51 252 4.0 7.0 0.00 0.00 0.00 79 1020.3
20260509221003 51 257 3.0 7.0 0.00 0.00 0.00 79 1020.4
20260509220803 51 249 4.0 7.0 0.00 0.00 0.00 79 1020.1
20260509220703 51 252 4.0 7.0 0.00 0.00 0.00 79 1020.2
20260509220603 51 244 4.0 7.0 0.00 0.00 0.00 79 1020.2
20260509220505 51 239 3.0 7.0 0.00 0.00 0.00 79 1020.2
20260509220413 51 237 2.0 9.0 0.00 0.00 0.00 79 1019.9
20260509220403 51 236 2.0 9.0 0.00 0.00 0.00 79 1019.9
20260509220304 51 231 2.0 9.0 0.00 0.00 0.00 79 1020.1
20260509220018 51 234 4.0 9.0 0.00 0.00 0.00 79 1020.3
20260509220005 51 235 4.0 9.0 0.00 0.00 0.00 79 1020.3
20260509215905 51 242 5.0 9.0 0.00 0.00 0.00 79 1020.1
20260509215713 51 246 5.0 9.0 0.00 0.00 0.00 79 1020.2
20260509215605 51 243 4.0 8.0 0.00 0.00 0.00 79 1020.2
20260509215405 51 243 5.0 8.0 0.00 0.00 0.00 79 1020.1
20260509215306 51 245 4.0 8.0 0.00 0.00 0.00 79 1019.9
20260509215105 51 247 4.0 11.0 0.00 0.00 0.00 79 1020.0
20260509215004 51 247 3.0 11.0 0.00 0.00 0.00 79 1020.1
20260509214917 51 243 4.0 11.0 0.00 0.00 0.00 79 1020.1
20260509214816 51 239 5.0 11.0 0.00 0.00 0.00 79 1020.0
20260509214804 51 237 5.0 11.0 0.00 0.00 0.00 79 1020.0
20260509214505 51 237 3.0 8.0 0.00 0.00 0.00 79 1020.1
20260509214404 51 238 4.0 8.0 0.00 0.00 0.00 79 1019.7
20260509214305 51 245 4.0 8.0 0.00 0.00 0.00 79 1019.7
20260509214205 51 251 2.0 8.0 0.00 0.00 0.00 79 1019.7
20260509214103 51 249 2.0 8.0 0.00 0.00 0.00 79 1019.7
20260509214004 51 251 4.0 8.0 0.00 0.00 0.00 79 1019.9
20260509213903 51 248 5.0 7.0 0.00 0.00 0.00 79 1019.7
20260509213804 51 237 2.0 9.0 0.00 0.00 0.00 79 1019.5
20260509213720 51 232 2.0 9.0 0.00 0.00 0.00 79 1019.6
20260509213704 51 231 2.0 9.0 0.00 0.00 0.00 79 1019.6
20260509213614 51 236 3.0 9.0 0.00 0.00 0.00 79 1019.9
20260509213607 51 239 3.0 9.0 0.00 0.00 0.00 79 1019.9
20260509213315 51 248 6.0 9.0 0.00 0.00 0.00 78 1019.6
20260509213303 51 249 6.0 9.0 0.00 0.00 0.00 78 1019.6
20260509213203 52 258 5.0 8.0 0.00 0.00 0.00 78 1019.8
20260509213004 52 251 4.0 7.0 0.00 0.00 0.00 78 1019.8
20260509212905 52 243 4.0 6.0 0.00 0.00 0.00 78 1019.8
20260509212804 52 240 2.0 11.0 0.00 0.00 0.00 78 1019.8
20260509212705 52 236 2.0 11.0 0.00 0.00 0.00 78 1019.7
20260509212605 52 236 3.0 11.0 0.00 0.00 0.00 78 1019.8
20260509212505 52 243 4.0 11.0 0.00 0.00 0.00 78 1019.8
20260509212403 52 243 4.0 11.0 0.00 0.00 0.00 78 1019.6
20260509212306 52 246 6.0 11.0 0.00 0.00 0.00 78 1019.7
20260509212205 52 257 4.0 9.0 0.00 0.00 0.00 78 1019.7
20260509212118 52 255 5.0 9.0 0.00 0.00 0.00 78 1019.7
20260509212104 52 250 5.0 9.0 0.00 0.00 0.00 78 1019.7
20260509212016 52 238 6.0 8.0 0.00 0.00 0.00 78 1019.8
20260509212004 52 235 6.0 8.0 0.00 0.00 0.00 78 1019.8
20260509211915 52 241 3.0 9.0 0.00 0.00 0.00 78 1019.8
20260509211604 52 234 5.0 9.0 0.00 0.00 0.00 78 1019.9
20260509211504 52 238 4.0 9.0 0.00 0.00 0.00 78 1019.8
20260509211405 52 234 4.0 9.0 0.00 0.00 0.00 78 1019.7
20260509211303 52 230 3.0 9.0 0.00 0.00 0.00 78 1019.7
20260509211103 52 235 4.0 9.0 0.00 0.00 0.00 78 1019.9
20260509211018 52 244 4.0 9.0 0.00 0.00 0.00 78 1019.9
20260509211003 52 246 4.0 9.0 0.00 0.00 0.00 78 1019.7
20260509210904 52 247 4.0 9.0 0.00 0.00 0.00 78 1019.5
20260509210704 52 241 2.0 9.0 0.00 0.00 0.00 78 1019.9
20260509210605 52 246 5.0 11.0 0.00 0.00 0.00 78 1019.7
20260509210505 52 230 5.0 11.0 0.00 0.00 0.00 78 1019.6
20260509210403 52 228 6.0 14.0 0.00 0.00 0.00 78 1019.8
20260509210304 52 233 3.0 14.0 0.00 0.00 0.00 78 1019.8
20260509210108 52 223 6.0 14.0 0.00 0.00 0.00 78 1020.0
20260509210004 52 221 7.0 14.0 0.00 0.00 0.00 78 1019.6
20260509205903 52 213 5.0 11.0 0.00 0.00 0.00 78 1019.8
20260509205807 52 210 6.0 11.0 0.00 0.00 0.00 78 1019.8
20260509205703 52 219 6.0 11.0 0.00 0.00 0.00 78 1019.8
20260509205603 52 214 5.0 11.0 0.00 0.00 0.00 78 1019.8
20260509205507 52 200 4.0 11.0 0.00 0.00 0.00 78 1020.0
20260509205405 52 217 4.0 11.0 0.00 0.00 0.00 78 1019.7
20260509205307 52 215 5.0 11.0 0.00 0.00 0.00 78 1019.7
20260509205203 52 211 6.0 11.0 0.00 0.00 0.00 78 1019.8
20260509205104 52 218 6.0 11.0 0.00 0.00 0.00 78 1019.8
20260509205003 52 239 4.0 9.0 0.00 0.00 0.00 78 1019.8
20260509204904 52 235 4.0 9.0 0.00 0.00 0.00 78 1019.5
20260509204812 52 236 4.0 9.0 0.00 0.00 0.00 78 1019.7
20260509204704 52 236 4.0 9.0 0.00 0.00 0.00 78 1020.0
20260509204605 52 231 5.0 9.0 0.00 0.00 0.00 78 1019.8
20260509204504 52 225 4.0 9.0 0.00 0.00 0.00 78 1019.9
20260509204404 52 223 7.0 9.0 0.00 0.00 0.00 78 1019.8
20260509204304 52 222 3.0 8.0 0.00 0.00 0.00 78 1019.7
20260509204218 52 225 4.0 8.0 0.00 0.00 0.00 78 1019.8
20260509204203 52 227 5.0 8.0 0.00 0.00 0.00 78 1019.9
20260509204105 52 241 4.0 8.0 0.00 0.00 0.00 78 1019.7
20260509203905 52 256 5.0 11.0 0.00 0.00 0.00 78 1019.8
20260509203804 52 261 4.0 13.0 0.00 0.00 0.00 78 1019.8
20260509203716 52 262 4.0 13.0 0.00 0.00 0.00 78 1019.8
20260509203704 52 266 4.0 13.0 0.00 0.00 0.00 78 1019.8
20260509203604 52 253 4.0 13.0 0.00 0.00 0.00 78 1019.6
20260509203405 52 250 5.0 13.0 0.00 0.00 0.00 79 1019.8
20260509203304 52 222 5.0 15.0 0.00 0.00 0.00 79 1020.0
20260509203204 52 208 6.0 15.0 0.00 0.00 0.00 79 1019.7
20260509203103 52 213 6.0 15.0 0.00 0.00 0.00 79 1019.8
20260509203005 52 206 5.0 15.0 0.00 0.00 0.00 79 1019.9
20260509202905 52 207 5.0 15.0 0.00 0.00 0.00 79 1019.8
20260509202803 52 220 8.0 15.0 0.00 0.00 0.00 79 1019.7
20260509202703 52 225 6.0 13.0 0.00 0.00 0.00 79 1019.7
20260509202603 52 231 4.0 13.0 0.00 0.00 0.00 79 1019.8
20260509202503 52 237 6.0 13.0 0.00 0.00 0.00 79 1019.8
20260509202408 52 233 7.0 13.0 0.00 0.00 0.00 79 1019.8
20260509202306 52 236 5.0 11.0 0.00 0.00 0.00 79 1019.7
20260509202203 52 240 5.0 16.0 0.00 0.00 0.00 79 1019.6
20260509202103 52 237 7.0 16.0 0.00 0.00 0.00 79 1019.7
20260509202003 52 238 5.0 16.0 0.00 0.00 0.00 79 1019.6
20260509201910 52 238 4.0 16.0 0.00 0.00 0.00 79 1019.5
20260509201805 52 243 5.0 16.0 0.00 0.00 0.00 79 1019.8
20260509201703 52 243 8.0 16.0 0.00 0.00 0.00 79 1019.7
20260509201603 52 243 7.0 14.0 0.00 0.00 0.00 79 1019.8
20260509201504 52 243 8.0 14.0 0.00 0.00 0.00 79 1019.8
20260509201405 52 248 4.0 14.0 0.00 0.00 0.00 80 1019.9
20260509201303 52 248 10.0 14.0 0.00 0.00 0.00 80 1019.8
20260509201203 52 241 6.0 14.0 0.00 0.00 0.00 80 1019.5
20260509201105 52 235 7.0 14.0 0.00 0.00 0.00 80 1019.7
20260509201004 52 233 6.0 14.0 0.00 0.00 0.00 80 1019.7
20260509200905 52 224 4.0 14.0 0.00 0.00 0.00 80 1019.6
20260509200803 52 218 4.0 14.0 0.00 0.00 0.00 80 1019.8
20260509200705 52 222 6.0 14.0 0.00 0.00 0.00 80 1019.8
20260509200603 52 232 5.0 16.0 0.00 0.00 0.00 80 1019.6
20260509200503 52 229 10.0 16.0 0.00 0.00 0.00 80 1019.8
20260509200405 52 234 9.0 16.0 0.00 0.00 0.00 80 1019.9
20260509200305 52 239 6.0 16.0 0.00 0.00 0.00 80 1020.0
20260509200209 52 240 8.0 16.0 0.00 0.00 0.00 80 1019.9
20260509200120 52 239 5.0 14.0 0.00 0.00 0.00 80 1019.8
20260509200103 52 240 5.0 14.0 0.00 0.00 0.00 80 1019.8
20260509200004 52 243 5.0 14.0 0.00 0.00 0.00 80 1019.8
20260509195806 52 244 6.0 15.0 0.00 0.00 0.00 80 1019.7
20260509195704 52 247 3.0 15.0 0.00 0.00 0.00 81 1019.7
20260509195604 52 247 7.0 15.0 0.00 0.00 0.00 80 1019.8
20260509195504 52 247 9.0 15.0 0.00 0.00 0.00 80 1019.7
20260509195405 52 248 7.0 14.0 0.00 0.00 0.00 80 1019.8
20260509195306 52 255 5.0 11.0 0.00 0.00 0.00 80 1019.7
20260509195204 52 249 4.0 11.0 0.00 0.00 0.00 80 1019.8
20260509195104 52 242 5.0 11.0 0.00 0.00 0.00 80 1019.7
20260509195004 52 234 4.0 11.0 0.00 0.00 0.00 80 1020.0
20260509194904 52 235 4.0 11.0 0.00 0.00 0.00 80 1019.7
20260509194817 52 230 5.0 11.0 0.00 0.00 0.00 80 1019.5
20260509194703 52 228 8.0 11.0 0.00 0.00 0.00 80 1019.5
20260509194504 52 251 6.0 11.0 0.00 0.00 0.00 80 1019.8
20260509194405 52 248 4.0 9.0 0.00 0.00 0.00 80 1019.6
20260509194307 52 237 4.0 11.0 0.00 0.00 0.00 80 1019.6
20260509194203 51 236 4.0 13.0 0.00 0.00 0.00 81 1019.9
20260509194104 51 232 4.0 13.0 0.00 0.00 0.00 81 1020.0
20260509194003 51 228 7.0 14.0 0.00 0.00 0.00 81 1019.6
20260509193904 51 225 4.0 14.0 0.00 0.00 0.00 81 1019.8
20260509193807 51 238 8.0 14.0 0.00 0.00 0.00 81 1019.9
20260509193604 51 250 4.0 14.0 0.00 0.00 0.00 81 1019.9
20260509193503 51 257 7.0 14.0 0.00 0.00 0.00 81 1019.7
20260509193405 51 260 6.0 13.0 0.00 0.00 0.00 81 1019.7
20260509193304 51 249 3.0 13.0 0.00 0.00 0.00 81 1019.9
20260509193204 51 243 4.0 13.0 0.00 0.00 0.00 82 1019.8
20260509193104 51 240 5.0 13.0 0.00 0.00 0.00 82 1019.7
20260509193006 51 239 9.0 13.0 0.00 0.00 0.00 81 1019.9
20260509192915 51 238 4.0 13.0 0.00 0.00 0.00 82 1019.8
20260509192905 51 240 4.0 13.0 0.00 0.00 0.00 82 1019.8
20260509192803 51 237 6.0 13.0 0.00 0.00 0.00 82 1020.0
20260509192616 51 240 5.0 14.0 0.00 0.00 0.00 81 1020.1
20260509192603 51 240 7.0 14.0 0.00 0.00 0.00 81 1020.1
20260509192503 51 229 4.0 14.0 0.00 0.00 0.00 81 1019.9
20260509192306 51 236 4.0 14.0 0.00 0.00 0.00 81 1019.8
20260509192205 51 237 7.0 14.0 0.00 0.00 0.00 81 1019.9
20260509192104 51 242 6.0 13.0 0.00 0.00 0.00 80 1019.9
20260509192005 52 258 4.0 13.0 0.00 0.00 0.00 80 1019.8
20260509191903 52 265 7.0 13.0 0.00 0.00 0.00 79 1019.9
20260509191805 52 260 8.0 13.0 0.00 0.00 0.00 78 1020.1
20260509191703 52 259 5.0 11.0 0.00 0.00 0.00 78 1019.9
20260509191604 52 251 4.0 11.0 0.00 0.00 0.00 78 1019.8
20260509191505 52 244 6.0 13.0 0.00 0.00 0.00 78 1019.5
20260509191403 52 240 5.0 13.0 0.00 0.00 0.00 78 1019.7
20260509191305 52 246 7.0 13.0 0.00 0.00 0.00 77 1019.7
20260509191205 52 253 5.0 13.0 0.00 0.00 0.00 78 1019.7
20260509191105 52 251 5.0 13.0 0.00 0.00 0.00 78 1019.7
20260509191004 52 260 5.0 13.0 0.00 0.00 0.00 78 1019.6
20260509190903 52 256 8.0 13.0 0.00 0.00 0.00 78 1019.8
20260509190804 52 251 5.0 13.0 0.00 0.00 0.00 78 1019.6
20260509190704 52 242 6.0 14.0 0.00 0.00 0.00 78 1019.8
20260509190604 52 260 4.0 14.0 0.00 0.00 0.00 78 1019.7
20260509190505 52 250 9.0 14.0 0.00 0.00 0.00 78 1019.8
20260509190403 52 238 6.0 14.0 0.00 0.00 0.00 78 1019.9
20260509190304 52 237 5.0 14.0 0.00 0.00 0.00 78 1019.7
20260509190204 52 230 8.0 13.0 0.00 0.00 0.00 78 1019.8
20260509190106 52 223 4.0 14.0 0.00 0.00 0.00 78 1019.7
20260509190005 52 222 4.0 14.0 0.00 0.00 0.00 78 1019.7
20260509185904 52 219 8.0 14.0 0.00 0.00 0.00 78 1019.7
20260509185817 52 211 8.0 14.0 0.00 0.00 0.00 78 1020.0
20260509185804 52 215 6.0 14.0 0.00 0.00 0.00 77 1019.6
20260509185505 52 213 7.0 14.0 0.00 0.00 0.00 76 1019.5
20260509185404 52 219 4.0 14.0 0.00 0.00 0.00 76 1019.6
20260509185315 52 227 8.0 14.0 0.00 0.00 0.00 76 1019.6
20260509185306 52 224 8.0 14.0 0.00 0.00 0.00 76 1019.6
20260509185205 52 217 7.0 17.0 0.00 0.00 0.00 76 1019.6
20260509185004 53 231 7.0 17.0 0.00 0.00 0.00 75 1019.5
20260509184914 53 242 6.0 17.0 0.00 0.00 0.00 75 1019.5
20260509184905 53 239 6.0 17.0 0.00 0.00 0.00 75 1019.5
20260509184804 53 240 7.0 17.0 0.00 0.00 0.00 76 1019.5
20260509184606 53 222 5.0 15.0 0.00 0.00 0.00 76 1019.4
20260509184513 52 221 7.0 15.0 0.00 0.00 0.00 76 1019.6
20260509184503 52 215 7.0 15.0 0.00 0.00 0.00 76 1019.6
20260509184417 52 206 8.0 14.0 0.00 0.00 0.00 76 1019.7
20260509184404 52 209 8.0 14.0 0.00 0.00 0.00 76 1019.7
20260509184316 52 200 7.0 15.0 0.00 0.00 0.00 77 1019.8
20260509184004 52 213 7.0 15.0 0.00 0.00 0.00 77 1019.6
20260509183903 52 203 8.0 17.0 0.00 0.00 0.00 77 1019.4
20260509183804 52 218 5.0 17.0 0.00 0.00 0.00 77 1019.6
20260509183705 52 220 4.0 17.0 0.00 0.00 0.00 77 1019.6
20260509183403 52 251 8.0 14.0 0.00 0.00 0.00 77 1019.7
20260509183305 52 227 8.0 14.0 0.00 0.00 0.00 77 1019.6
20260509183105 52 214 6.0 14.0 0.00 0.00 0.00 76 1019.8
20260509183018 52 217 6.0 14.0 0.00 0.00 0.00 76 1019.6
20260509183003 52 217 7.0 14.0 0.00 0.00 0.00 77 1019.8
20260509182903 52 212 6.0 14.0 0.00 0.00 0.00 77 1019.5
20260509182703 52 243 6.0 13.0 0.00 0.00 0.00 77 1019.6
20260509182617 52 243 6.0 13.0 0.00 0.00 0.00 77 1019.6
20260509182603 51 246 8.0 13.0 0.00 0.00 0.00 77 1019.7
20260509182503 51 255 8.0 13.0 0.00 0.00 0.00 77 1019.6
20260509182306 52 229 4.0 15.0 0.00 0.00 0.00 78 1019.5
20260509182216 51 227 3.0 15.0 0.00 0.00 0.00 78 1019.5
20260509182206 51 227 6.0 15.0 0.00 0.00 0.00 79 1019.6
20260509182115 51 225 7.0 15.0 0.00 0.00 0.00 79 1019.6
20260509182105 51 224 7.0 15.0 0.00 0.00 0.00 79 1019.6
20260509181917 51 225 9.0 15.0 0.00 0.00 0.00 79 1019.6
20260509181803 51 236 9.0 15.0 0.00 0.00 0.00 78 1019.5
20260509181603 52 240 6.0 15.0 0.00 0.00 0.00 77 1019.8
20260509181504 52 230 9.0 15.0 0.00 0.00 0.00 76 1019.5
20260509181403 53 237 8.0 14.0 0.00 0.00 0.00 74 1019.5
20260509181204 53 231 7.0 15.0 0.00 0.00 0.00 73 1019.4
20260509181104 53 231 6.0 15.0 0.00 0.00 0.00 73 1019.5
20260509181005 52 231 8.0 15.0 0.00 0.00 0.00 73 1019.3
20260509180904 52 227 8.0 15.0 0.00 0.00 0.00 73 1019.6
20260509180803 53 242 8.0 15.0 0.00 0.00 0.00 73 1019.4
20260509180704 53 234 9.0 15.0 0.00 0.00 0.00 72 1019.2
20260509180604 53 220 7.0 15.0 0.00 0.00 0.00 72 1019.5
20260509180504 53 228 3.0 15.0 0.00 0.00 0.00 72 1019.4
20260509180404 53 232 5.0 15.0 0.00 0.00 0.00 72 1019.4
20260509180304 53 229 6.0 15.0 0.00 0.00 0.00 72 1019.3
20260509180203 53 229 7.0 15.0 0.00 0.00 0.00 71 1019.3
20260509180117 53 234 7.0 20.0 0.00 0.00 0.00 71 1019.4
20260509180103 53 239 7.0 20.0 0.00 0.00 0.00 71 1019.4
20260509180015 53 240 6.0 20.0 0.00 0.00 0.00 72 1019.3
20260509180004 53 236 6.0 20.0 0.00 0.00 0.00 72 1019.3
20260509175704 53 228 8.0 20.0 0.00 0.00 0.00 72 1019.3
20260509175606 53 232 11.0 20.0 0.00 0.00 0.00 73 1019.5
20260509175503 53 233 7.0 18.0 0.00 0.00 0.00 73 1019.5
20260509175417 53 235 7.0 18.0 0.00 0.00 0.00 73 1019.6
20260509175404 53 239 11.0 18.0 0.00 0.00 0.00 72 1019.3
20260509175306 53 243 9.0 17.0 0.00 0.00 0.00 72 1019.5
20260509175103 53 246 9.0 17.0 0.00 0.00 0.00 72 1019.3
20260509175005 53 251 8.0 16.0 0.00 0.00 0.00 72 1019.3
20260509174904 53 253 7.0 16.0 0.00 0.00 0.00 72 1019.4
20260509174804 53 251 8.0 16.0 0.00 0.00 0.00 72 1019.3
20260509174705 53 240 5.0 17.0 0.00 0.00 0.00 72 1019.3
20260509174504 53 219 6.0 17.0 0.00 0.00 0.00 72 1019.4
20260509174405 53 237 4.0 25.0 0.00 0.00 0.00 72 1019.3
20260509174305 53 240 6.0 25.0 0.00 0.00 0.00 72 1019.1
20260509174204 53 252 8.0 25.0 0.00 0.00 0.00 72 1019.5
20260509174103 53 257 8.0 25.0 0.00 0.00 0.00 72 1019.4
20260509174005 53 267 7.0 25.0 0.00 0.00 0.00 73 1019.4
20260509173904 53 261 15.0 25.0 0.00 0.00 0.00 73 1019.3
20260509173806 53 259 6.0 15.0 0.00 0.00 0.00 72 1019.3
20260509173705 53 253 4.0 15.0 0.00 0.00 0.00 73 1019.2
20260509173603 53 253 8.0 15.0 0.00 0.00 0.00 72 1019.4
20260509173504 53 247 10.0 14.0 0.00 0.00 0.00 72 1019.3
20260509173404 53 229 5.0 17.0 0.00 0.00 0.00 72 1019.4
20260509173305 53 235 8.0 17.0 0.00 0.00 0.00 72 1019.2
20260509173205 53 233 4.0 17.0 0.00 0.00 0.00 73 1019.5
20260509173103 53 230 7.0 17.0 0.00 0.00 0.00 73 1019.3
20260509173004 53 218 6.0 17.0 0.00 0.00 0.00 73 1019.4
20260509172906 53 230 5.0 15.0 0.00 0.00 0.00 73 1019.4
20260509172804 53 214 6.0 15.0 0.00 0.00 0.00 73 1019.4
20260509172705 52 206 5.0 15.0 0.00 0.00 0.00 73 1019.5
20260509172603 52 213 6.0 15.0 0.00 0.00 0.00 73 1019.5
20260509172503 52 222 9.0 15.0 0.00 0.00 0.00 73 1019.4
20260509172403 53 219 8.0 15.0 0.00 0.00 0.00 73 1019.4
20260509172306 52 225 8.0 15.0 0.00 0.00 0.00 73 1019.4
20260509172203 52 234 5.0 15.0 0.00 0.00 0.00 73 1019.4
20260509172105 52 225 7.0 15.0 0.00 0.00 0.00 73 1019.3
20260509172004 52 219 8.0 15.0 0.00 0.00 0.00 73 1019.2
20260509171905 52 220 8.0 15.0 0.00 0.00 0.00 73 1019.3
20260509171805 52 219 9.0 15.0 0.00 0.00 0.00 73 1019.3
20260509171704 53 232 6.0 13.0 0.00 0.00 0.00 73 1019.3
20260509171604 53 234 3.0 13.0 0.00 0.00 0.00 73 1019.4
20260509171504 52 245 4.0 13.0 0.00 0.00 0.00 73 1019.4
20260509171405 52 238 7.0 13.0 0.00 0.00 0.00 73 1019.4
20260509171314 52 235 6.0 13.0 0.00 0.00 0.00 73 1019.6
20260509171205 52 228 5.0 15.0 0.00 0.00 0.00 73 1019.4
20260509171004 52 216 8.0 17.0 0.00 0.00 0.00 73 1019.2
20260509170903 52 221 8.0 17.0 0.00 0.00 0.00 73 1019.3
20260509170817 52 232 8.0 17.0 0.00 0.00 0.00 73 1019.1
20260509170805 52 234 8.0 17.0 0.00 0.00 0.00 73 1019.1
20260509170707 52 231 8.0 17.0 0.00 0.00 0.00 73 1019.2
20260509170518 52 220 9.0 17.0 0.00 0.00 0.00 73 1019.3
20260509170504 52 224 9.0 17.0 0.00 0.00 0.00 73 1019.3
20260509170404 52 231 6.0 17.0 0.00 0.00 0.00 73 1019.2
20260509170203 52 239 11.0 21.0 0.00 0.00 0.00 74 1019.2
20260509170104 52 244 8.0 21.0 0.00 0.00 0.00 74 1019.5
20260509170004 52 241 8.0 21.0 0.00 0.00 0.00 74 1019.3
20260509165907 52 238 8.0 21.0 0.00 0.00 0.00 73 1019.3
20260509165804 52 232 9.0 21.0 0.00 0.00 0.00 74 1019.2
20260509165717 52 223 8.0 15.0 0.00 0.00 0.00 74 1019.5
20260509165603 52 226 6.0 15.0 0.00 0.00 0.00 74 1019.4
20260509165514 52 234 7.0 15.0 0.00 0.00 0.00 74 1019.3
20260509165403 52 240 8.0 18.0 0.00 0.00 0.00 74 1019.6
20260509165205 52 247 6.0 18.0 0.00 0.00 0.00 74 1019.2
20260509165104 52 252 7.0 18.0 0.00 0.00 0.00 75 1019.3
20260509165006 51 241 12.0 18.0 0.00 0.00 0.00 76 1019.4
20260509164903 51 241 12.0 18.0 0.00 0.00 0.00 76 1019.1
20260509164805 51 239 6.0 15.0 0.00 0.00 0.00 76 1019.2
20260509164703 51 241 7.0 15.0 0.00 0.00 0.00 76 1019.2
20260509164603 51 238 8.0 15.0 0.00 0.00 0.00 76 1019.4
20260509164504 51 249 8.0 16.0 0.00 0.00 0.00 76 1019.6
20260509164403 51 248 8.0 16.0 0.00 0.00 0.00 76 1019.7
20260509164305 51 244 4.0 16.0 0.00 0.00 0.00 76 1019.5
20260509164216 51 250 8.0 16.0 0.00 0.00 0.00 76 1019.6
20260509164203 51 250 4.0 16.0 0.00 0.00 0.00 76 1019.5
20260509164104 51 248 10.0 16.0 0.00 0.00 0.00 76 1019.6
20260509163903 51 230 9.0 15.0 0.00 0.00 0.00 76 1019.6
20260509163804 51 233 7.0 15.0 0.00 0.00 0.00 76 1019.6
20260509163703 51 224 4.0 15.0 0.00 0.00 0.00 76 1019.5
20260509163604 51 223 5.0 15.0 0.00 0.00 0.00 76 1019.6
20260509163505 51 223 7.0 15.0 0.00 0.00 0.00 76 1019.3
20260509163403 51 227 8.0 18.0 0.00 0.00 0.00 76 1019.5
20260509163303 51 212 8.0 18.0 0.00 0.00 0.00 75 1019.5
20260509163204 51 211 5.0 18.0 0.00 0.00 0.00 75 1019.5
20260509163104 51 216 5.0 18.0 0.00 0.00 0.00 75 1019.5
20260509163004 51 211 5.0 18.0 0.00 0.00 0.00 75 1019.3
20260509162917 51 207 10.0 18.0 0.00 0.00 0.00 75 1019.4
20260509162904 51 210 10.0 18.0 0.00 0.00 0.00 75 1019.4
20260509162804 51 223 4.0 16.0 0.00 0.00 0.00 75 1019.5
20260509162609 51 215 8.0 18.0 0.00 0.00 0.00 76 1019.5
20260509162504 51 217 8.0 18.0 0.00 0.00 0.00 76 1019.5
20260509162404 51 204 10.0 18.0 0.00 0.00 0.00 75 1019.5
20260509162307 51 203 5.0 18.0 0.00 0.00 0.00 76 1019.5
20260509162205 51 209 11.0 18.0 0.00 0.00 0.00 76 1019.5
20260509162116 51 210 8.0 16.0 0.00 0.00 0.00 76 1019.4
20260509162004 51 222 9.0 16.0 0.00 0.00 0.00 76 1019.5
20260509161913 51 236 6.0 16.0 0.00 0.00 0.00 76 1019.8
20260509161803 51 249 6.0 16.0 0.00 0.00 0.00 77 1019.7
20260509161604 50 243 8.0 24.0 0.00 0.00 0.00 77 1019.8
20260509161504 51 241 9.0 24.0 0.00 0.00 0.00 76 1019.5
20260509161403 51 246 7.0 24.0 0.00 0.00 0.00 75 1019.6
20260509161303 51 242 8.0 24.0 0.00 0.00 0.00 75 1019.6
20260509161203 51 239 12.0 24.0 0.00 0.00 0.00 74 1019.6
20260509161105 51 232 8.0 22.0 0.00 0.00 0.00 74 1019.5
20260509161004 51 233 11.0 22.0 0.00 0.00 0.00 74 1019.5
20260509160903 51 223 9.0 22.0 0.00 0.00 0.00 74 1019.6
20260509160805 51 218 8.0 17.0 0.00 0.00 0.00 74 1019.6
20260509160703 51 216 7.0 17.0 0.00 0.00 0.00 74 1019.6
20260509160603 51 237 8.0 17.0 0.00 0.00 0.00 74 1019.5
20260509160403 51 232 8.0 14.0 0.00 0.00 0.00 74 1019.5
20260509160303 51 235 5.0 16.0 0.00 0.00 0.00 74 1019.4
20260509160205 51 217 9.0 18.0 0.00 0.00 0.00 74 1019.8
20260509160103 51 209 8.0 18.0 0.00 0.00 0.00 74 1019.6
20260509160008 51 215 5.0 18.0 0.00 0.00 0.00 75 1019.3
20260509155903 51 221 8.0 23.0 0.00 0.00 0.00 75 1019.4
20260509155805 51 221 10.0 23.0 0.00 0.00 0.00 74 1019.4
20260509155703 51 237 11.0 23.0 0.00 0.00 0.00 74 1019.2
20260509155616 51 241 8.0 23.0 0.00 0.00 0.00 74 1019.7
20260509155503 51 232 8.0 23.0 0.00 0.00 0.00 74 1019.5
20260509155306 51 225 7.0 18.0 0.00 0.00 0.00 74 1019.7
20260509155203 51 229 8.0 18.0 0.00 0.00 0.00 74 1019.4
20260509155105 51 225 13.0 18.0 0.00 0.00 0.00 74 1019.6
20260509155018 51 229 7.0 15.0 0.00 0.00 0.00 74 1019.3
20260509155003 51 232 6.0 15.0 0.00 0.00 0.00 74 1019.4
20260509154705 51 250 6.0 15.0 0.00 0.00 0.00 74 1019.5
20260509154605 51 232 7.0 22.0 0.00 0.00 0.00 74 1019.6
20260509154515 51 224 5.0 22.0 0.00 0.00 0.00 75 1019.4
20260509154503 51 219 5.0 22.0 0.00 0.00 0.00 75 1019.4
20260509154405 51 223 7.0 22.0 0.00 0.00 0.00 75 1019.4
20260509154208 51 221 11.0 22.0 0.00 0.00 0.00 75 1019.6
20260509154104 51 219 8.0 20.0 0.00 0.00 0.00 75 1019.5
20260509154003 51 220 8.0 20.0 0.00 0.00 0.00 76 1019.6
20260509153905 50 218 11.0 20.0 0.00 0.00 0.00 75 1019.3
20260509153804 51 218 11.0 20.0 0.00 0.00 0.00 75 1019.3
20260509153704 51 225 8.0 17.0 0.00 0.00 0.00 75 1019.5
20260509153604 51 227 9.0 17.0 0.00 0.00 0.00 75 1019.3
20260509153504 51 237 6.0 17.0 0.00 0.00 0.00 75 1019.5
20260509153404 51 230 10.0 17.0 0.00 0.00 0.00 75 1019.3
20260509153306 51 225 7.0 17.0 0.00 0.00 0.00 75 1019.5
20260509153204 51 229 11.0 17.0 0.00 0.00 0.00 75 1019.6
20260509153104 51 230 10.0 17.0 0.00 0.00 0.00 75 1019.4
20260509153004 51 226 8.0 16.0 0.00 0.00 0.00 75 1019.2
20260509152904 51 235 6.0 17.0 0.00 0.00 0.00 75 1019.3
20260509152804 51 232 7.0 17.0 0.00 0.00 0.00 75 1019.3
20260509152607 51 235 4.0 23.0 0.00 0.00 0.00 75 1019.2
20260509152504 51 234 8.0 23.0 0.00 0.00 0.00 75 1019.5
20260509152406 51 230 8.0 23.0 0.00 0.00 0.00 75 1019.2
20260509152306 51 232 9.0 23.0 0.00 0.00 0.00 75 1019.4
20260509152204 51 228 11.0 18.0 0.00 0.00 0.00 74 1019.5
20260509152103 51 224 11.0 18.0 0.00 0.00 0.00 74 1019.5
20260509152004 51 215 9.0 18.0 0.00 0.00 0.00 74 1019.1
20260509151903 51 204 8.0 18.0 0.00 0.00 0.00 74 1019.2
20260509151803 51 218 9.0 18.0 0.00 0.00 0.00 74 1019.1
20260509151704 51 216 9.0 18.0 0.00 0.00 0.00 74 1019.2
20260509151603 51 236 9.0 18.0 0.00 0.00 0.00 74 1019.1
20260509151505 51 242 9.0 18.0 0.00 0.00 0.00 74 1019.1
20260509151404 51 241 9.0 17.0 0.00 0.00 0.00 74 1019.2
20260509151209 51 227 5.0 22.0 0.00 0.00 0.00 74 1019.2
20260509151103 51 220 10.0 22.0 0.00 0.00 0.00 74 1019.1
20260509150903 51 233 8.0 22.0 0.00 0.00 0.00 74 1019.0
20260509150804 51 235 10.0 22.0 0.00 0.00 0.00 74 1018.9
20260509150704 51 232 13.0 22.0 0.00 0.00 0.00 74 1019.0
20260509150615 51 232 9.0 18.0 0.00 0.00 0.00 74 1019.0
20260509150603 51 234 11.0 18.0 0.00 0.00 0.00 74 1018.9
20260509150505 51 231 7.0 18.0 0.00 0.00 0.00 74 1019.3
20260509150418 51 232 9.0 18.0 0.00 0.00 0.00 74 1019.0
20260509150303 51 231 10.0 18.0 0.00 0.00 0.00 74 1019.2
20260509150103 51 223 8.0 17.0 0.00 0.00 0.00 74 1019.1
20260509150004 51 222 11.0 20.0 0.00 0.00 0.00 74 1019.1
20260509145903 51 217 10.0 20.0 0.00 0.00 0.00 74 1018.8
20260509145803 51 220 9.0 20.0 0.00 0.00 0.00 74 1018.9
20260509145718 51 218 8.0 20.0 0.00 0.00 0.00 73 1018.9
20260509145703 51 216 8.0 20.0 0.00 0.00 0.00 73 1018.9
20260509145603 51 214 8.0 20.0 0.00 0.00 0.00 73 1019.1
20260509145403 51 215 8.0 20.0 0.00 0.00 0.00 73 1018.8
20260509145306 51 215 6.0 20.0 0.00 0.00 0.00 73 1019.0
20260509145203 51 226 7.0 20.0 0.00 0.00 0.00 73 1019.0
20260509145103 51 230 9.0 20.0 0.00 0.00 0.00 73 1018.6
20260509145003 51 239 11.0 20.0 0.00 0.00 0.00 73 1018.6
20260509144803 51 249 8.0 18.0 0.00 0.00 0.00 73 1018.7
20260509144703 51 253 8.0 18.0 0.00 0.00 0.00 73 1018.7
20260509144605 51 253 7.0 18.0 0.00 0.00 0.00 73 1018.6
20260509144516 51 241 10.0 18.0 0.00 0.00 0.00 73 1018.7
20260509144504 51 240 10.0 18.0 0.00 0.00 0.00 73 1018.7
20260509144403 51 243 9.0 18.0 0.00 0.00 0.00 73 1018.9
20260509144205 51 244 6.0 16.0 0.00 0.00 0.00 73 1018.5
20260509144103 51 241 5.0 16.0 0.00 0.00 0.00 73 1018.6
20260509144019 51 243 9.0 16.0 0.00 0.00 0.00 73 1018.7
20260509144006 51 244 9.0 16.0 0.00 0.00 0.00 73 1018.7
20260509143903 51 247 8.0 15.0 0.00 0.00 0.00 73 1018.5
20260509143816 51 236 9.0 15.0 0.00 0.00 0.00 73 1018.8
20260509143704 51 225 8.0 15.0 0.00 0.00 0.00 73 1018.7
20260509143404 51 236 7.0 22.0 0.00 0.00 0.00 74 1018.6
20260509143304 51 236 7.0 22.0 0.00 0.00 0.00 74 1018.3
20260509143207 51 231 6.0 22.0 0.00 0.00 0.00 74 1018.5
20260509143105 51 237 6.0 22.0 0.00 0.00 0.00 74 1018.5
20260509143005 51 241 9.0 23.0 0.00 0.00 0.00 74 1018.4
20260509142903 51 232 11.0 23.0 0.00 0.00 0.00 74 1018.3
20260509142804 51 234 9.0 23.0 0.00 0.00 0.00 74 1018.5
20260509142704 51 239 10.0 23.0 0.00 0.00 0.00 74 1018.4
20260509142608 51 234 7.0 23.0 0.00 0.00 0.00 74 1018.6
20260509142503 51 227 10.0 17.0 0.00 0.00 0.00 74 1018.3
20260509142403 51 231 11.0 17.0 0.00 0.00 0.00 74 1018.4
20260509142307 51 230 11.0 17.0 0.00 0.00 0.00 74 1018.4
20260509142204 51 242 12.0 17.0 0.00 0.00 0.00 74 1018.4
20260509142103 51 254 8.0 17.0 0.00 0.00 0.00 74 1018.6
20260509142005 51 269 10.0 17.0 0.00 0.00 0.00 74 1018.4
20260509141904 51 264 9.0 17.0 0.00 0.00 0.00 74 1018.5
20260509141804 51 257 11.0 22.0 0.00 0.00 0.00 74 1018.4
20260509141705 51 225 10.0 22.0 0.00 0.00 0.00 74 1018.5
20260509141603 51 220 8.0 22.0 0.00 0.00 0.00 74 1018.3
20260509141503 51 218 11.0 22.0 0.00 0.00 0.00 74 1018.5
20260509141403 51 221 11.0 22.0 0.00 0.00 0.00 74 1018.3
20260509141303 51 225 11.0 22.0 0.00 0.00 0.00 74 1018.2
20260509141207 51 227 8.0 18.0 0.00 0.00 0.00 74 1018.2
20260509141105 51 229 6.0 18.0 0.00 0.00 0.00 74 1018.3
20260509141017 51 231 6.0 18.0 0.00 0.00 0.00 74 1018.5
20260509141004 51 232 6.0 18.0 0.00 0.00 0.00 74 1018.4
20260509140903 51 226 8.0 18.0 0.00 0.00 0.00 74 1018.3
20260509140703 51 208 9.0 20.0 0.00 0.00 0.00 74 1018.3
20260509140603 51 215 8.0 20.0 0.00 0.00 0.00 74 1018.4
20260509140504 51 223 9.0 20.0 0.00 0.00 0.00 74 1018.5
20260509140403 51 234 10.0 20.0 0.00 0.00 0.00 74 1018.6
20260509140303 51 244 11.0 20.0 0.00 0.00 0.00 74 1018.4
20260509140203 51 248 9.0 18.0 0.00 0.00 0.00 74 1018.3
20260509140105 51 244 8.0 18.0 0.00 0.00 0.00 74 1018.4
20260509140005 51 239 12.0 18.0 0.00 0.00 0.00 74 1018.4
20260509135903 51 241 7.0 17.0 0.00 0.00 0.00 74 1018.3
20260509135803 51 235 8.0 17.0 0.00 0.00 0.00 74 1018.3
20260509135703 51 244 9.0 17.0 0.00 0.00 0.00 74 1018.1
20260509135617 51 243 11.0 17.0 0.00 0.00 0.00 74 1018.0
20260509135521 51 236 9.0 16.0 0.00 0.00 0.00 74 1018.3
20260509135505 51 230 9.0 16.0 0.00 0.00 0.00 74 1018.3
20260509135414 51 215 9.0 14.0 0.00 0.00 0.00 74 1018.1
20260509135105 51 219 7.0 18.0 0.00 0.00 0.00 74 1018.2
20260509135005 51 226 7.0 18.0 0.00 0.00 0.00 74 1018.3
20260509134803 51 243 7.0 18.0 0.00 0.00 0.00 74 1018.0
20260509134708 51 233 9.0 18.0 0.00 0.00 0.00 74 1018.2
20260509134604 51 238 8.0 17.0 0.00 0.00 0.00 74 1018.2
20260509134506 51 243 7.0 17.0 0.00 0.00 0.00 74 1018.2
20260509134404 51 239 6.0 18.0 0.00 0.00 0.00 75 1018.3
20260509134305 51 226 7.0 18.0 0.00 0.00 0.00 75 1018.2
20260509134204 51 231 9.0 18.0 0.00 0.00 0.00 74 1018.2
20260509134103 51 240 11.0 18.0 0.00 0.00 0.00 74 1018.2
20260509134004 51 255 7.0 18.0 0.00 0.00 0.00 74 1018.1
20260509133903 51 260 8.0 18.0 0.00 0.00 0.00 74 1018.2
20260509133805 51 258 6.0 17.0 0.00 0.00 0.00 74 1018.1
20260509133704 51 251 5.0 17.0 0.00 0.00 0.00 75 1018.2
20260509133603 51 238 5.0 17.0 0.00 0.00 0.00 75 1018.1
20260509133504 51 229 5.0 17.0 0.00 0.00 0.00 75 1018.1
20260509133403 51 207 11.0 21.0 0.00 0.00 0.00 75 1018.1
20260509133303 51 199 11.0 21.0 0.00 0.00 0.00 75 1018.1
20260509133205 51 190 8.0 21.0 0.00 0.00 0.00 75 1018.2
20260509133105 51 186 8.0 21.0 0.00 0.00 0.00 75 1018.1
20260509133004 51 200 10.0 21.0 0.00 0.00 0.00 75 1018.4
20260509132914 51 229 6.0 21.0 0.00 0.00 0.00 75 1018.2
20260509132903 51 230 6.0 21.0 0.00 0.00 0.00 75 1018.2
20260509132805 51 229 5.0 21.0 0.00 0.00 0.00 75 1018.0
20260509132604 51 234 8.0 21.0 0.00 0.00 0.00 76 1018.1
20260509132513 51 228 11.0 21.0 0.00 0.00 0.00 76 1018.0
20260509132504 51 225 11.0 21.0 0.00 0.00 0.00 76 1018.0
20260509132403 51 209 11.0 21.0 0.00 0.00 0.00 76 1018.1
20260509132204 51 212 5.0 24.0 0.00 0.00 0.00 76 1018.0
20260509132103 50 215 10.0 24.0 0.00 0.00 0.00 76 1018.1
20260509132010 50 217 6.0 24.0 0.00 0.00 0.00 77 1017.9
20260509131903 50 225 8.0 24.0 0.00 0.00 0.00 77 1017.7
20260509131717 50 238 14.0 24.0 0.00 0.00 0.00 77 1018.0
20260509131706 50 240 14.0 24.0 0.00 0.00 0.00 77 1018.0
20260509131603 50 243 9.0 22.0 0.00 0.00 0.00 77 1018.0
20260509131403 50 243 9.0 22.0 0.00 0.00 0.00 77 1018.0
20260509131305 50 242 10.0 22.0 0.00 0.00 0.00 77 1017.9
20260509131203 50 237 9.0 22.0 0.00 0.00 0.00 77 1017.9
20260509131103 50 229 11.0 18.0 0.00 0.00 0.00 77 1017.8
20260509131003 50 225 9.0 22.0 0.00 0.00 0.00 78 1018.0
20260509130904 50 230 8.0 22.0 0.00 0.00 0.00 78 1018.0
20260509130804 50 227 4.0 22.0 0.00 0.00 0.00 78 1017.9
20260509130703 49 223 8.0 22.0 0.00 0.00 0.00 78 1017.9
20260509130603 49 230 9.0 22.0 0.00 0.00 0.00 79 1018.0
20260509130503 49 229 8.0 17.0 0.00 0.00 0.00 79 1018.0
20260509130405 49 213 10.0 17.0 0.00 0.00 0.00 79 1017.8
20260509130305 49 214 8.0 17.0 0.00 0.00 0.00 79 1017.9
20260509130203 49 229 7.0 16.0 0.00 0.00 0.00 79 1017.8
20260509130104 49 224 8.0 16.0 0.00 0.00 0.00 79 1017.9
20260509130013 49 215 8.0 16.0 0.00 0.00 0.00 79 1017.8
20260509130004 49 211 8.0 16.0 0.00 0.00 0.00 79 1017.8
20260509125903 49 225 4.0 16.0 0.00 0.00 0.00 80 1017.9
20260509125815 49 228 4.0 16.0 0.00 0.00 0.00 80 1017.7
20260509125703 49 225 7.0 18.0 0.00 0.00 0.00 80 1017.7
20260509125618 49 227 8.0 18.0 0.00 0.00 0.00 80 1017.8
20260509125505 49 238 8.0 20.0 0.00 0.00 0.00 80 1017.7
20260509125307 49 249 4.0 20.0 0.00 0.00 0.00 80 1017.8
20260509125217 49 246 11.0 20.0 0.00 0.00 0.00 80 1017.6
20260509125203 49 244 11.0 20.0 0.00 0.00 0.00 80 1017.6
20260509125105 49 250 12.0 20.0 0.00 0.00 0.00 80 1017.7
20260509124904 49 251 5.0 18.0 0.00 0.00 0.00 80 1017.6
20260509124804 49 243 11.0 18.0 0.00 0.00 0.00 80 1017.7
20260509124704 49 240 9.0 16.0 0.00 0.00 0.00 80 1017.6
20260509124604 49 236 8.0 14.0 0.00 0.00 0.00 80 1017.9
20260509124504 49 232 4.0 14.0 0.00 0.00 0.00 80 1017.9
20260509124405 49 235 5.0 14.0 0.00 0.00 0.00 80 1017.8
20260509124303 49 244 9.0 17.0 0.00 0.00 0.00 80 1017.8
20260509124205 49 244 8.0 22.0 0.00 0.00 0.00 80 1017.7
20260509124103 49 236 6.0 22.0 0.00 0.00 0.00 80 1017.7
20260509124004 49 239 7.0 22.0 0.00 0.00 0.00 80 1017.7
20260509123907 49 234 6.0 22.0 0.00 0.00 0.00 81 1017.7
20260509123804 49 224 12.0 22.0 0.00 0.00 0.00 80 1017.7
20260509123615 49 225 8.0 20.0 0.00 0.00 0.00 81 1017.6
20260509123507 49 223 8.0 20.0 0.00 0.00 0.00 81 1017.7
20260509123315 49 212 7.0 17.0 0.00 0.00 0.00 81 1017.7
20260509123304 49 216 7.0 17.0 0.00 0.00 0.00 81 1017.7
20260509123205 49 230 7.0 20.0 0.00 0.00 0.00 81 1017.4
20260509123003 49 217 7.0 20.0 0.00 0.00 0.00 81 1017.5
20260509122905 49 209 9.0 20.0 0.00 0.00 0.00 80 1017.7
20260509122805 49 208 10.0 20.0 0.00 0.00 0.00 81 1017.3
20260509122705 49 202 12.0 20.0 0.00 0.00 0.00 80 1017.6
20260509122603 49 213 9.0 21.0 0.00 0.00 0.00 81 1017.6
20260509122504 49 235 5.0 21.0 0.00 0.00 0.00 81 1017.5
20260509122411 49 243 7.0 21.0 0.00 0.00 0.00 81 1017.4
20260509122403 49 247 7.0 21.0 0.00 0.00 0.00 81 1017.4
20260509122103 49 251 11.0 21.0 0.00 0.00 0.00 81 1017.4
20260509122017 49 247 11.0 20.0 0.00 0.00 0.00 81 1017.4
20260509122005 49 245 11.0 20.0 0.00 0.00 0.00 81 1017.4
20260509121903 49 234 8.0 17.0 0.00 0.00 0.00 81 1017.4
20260509121703 49 228 10.0 17.0 0.00 0.00 0.00 81 1017.4
20260509121606 49 234 8.0 16.0 0.00 0.00 0.00 81 1017.2
20260509121505 49 238 5.0 20.0 0.00 0.00 0.00 82 1017.3
20260509121406 49 236 7.0 20.0 0.00 0.00 0.00 81 1017.2
20260509121303 49 228 8.0 20.0 0.00 0.00 0.00 81 1017.3
20260509121203 49 222 8.0 20.0 0.00 0.00 0.00 81 1017.5
20260509121103 49 220 9.0 20.0 0.00 0.00 0.00 81 1017.1
20260509121003 49 216 8.0 20.0 0.00 0.00 0.00 81 1017.3
20260509120905 49 216 6.0 20.0 0.00 0.00 0.00 81 1017.2
20260509120805 49 220 8.0 20.0 0.00 0.00 0.00 81 1017.2
20260509120703 49 220 8.0 20.0 0.00 0.00 0.00 81 1017.1
20260509120603 49 213 4.0 17.0 0.00 0.00 0.00 81 1017.2
20260509120503 49 210 6.0 18.0 0.00 0.00 0.00 81 1017.4
20260509120404 49 219 6.0 18.0 0.00 0.00 0.00 81 1017.1
20260509120304 49 222 7.0 18.0 0.00 0.00 0.00 81 1017.3
20260509120217 49 219 7.0 21.0 0.00 0.00 0.00 81 1017.2
20260509120205 49 221 6.0 21.0 0.00 0.00 0.00 81 1017.1
20260509120104 49 234 10.0 21.0 0.00 0.00 0.00 81 1017.1
20260509115903 49 240 11.0 21.0 0.00 0.00 0.00 81 1017.2
20260509115805 49 234 11.0 21.0 0.00 0.00 0.00 81 1016.9
20260509115703 49 241 10.0 17.0 0.00 0.00 0.00 81 1017.1
20260509115604 49 243 7.0 22.0 0.00 0.00 0.00 81 1017.1
20260509115503 49 239 5.0 22.0 0.00 0.00 0.00 81 1017.0
20260509115405 49 239 10.0 22.0 0.00 0.00 0.00 81 1016.9
20260509115319 49 244 7.0 22.0 0.00 0.00 0.00 81 1017.1
20260509115306 49 245 7.0 22.0 0.00 0.00 0.00 81 1017.1
20260509115218 49 250 9.0 22.0 0.00 0.00 0.00 81 1016.9
20260509115204 49 252 9.0 22.0 0.00 0.00 0.00 81 1016.9
20260509115116 49 245 12.0 22.0 0.00 0.00 0.00 81 1016.8
20260509114803 49 241 6.0 18.0 0.00 0.00 0.00 81 1016.7
20260509114704 49 233 11.0 23.0 0.00 0.00 0.00 81 1016.9
20260509114605 49 230 11.0 23.0 0.00 0.00 0.00 81 1017.1
20260509114506 49 236 9.0 23.0 0.00 0.00 0.00 81 1017.1
20260509114404 49 237 8.0 23.0 0.00 0.00 0.00 81 1016.8
20260509114303 49 238 10.0 23.0 0.00 0.00 0.00 81 1016.8
20260509114205 49 239 11.0 18.0 0.00 0.00 0.00 81 1016.8
20260509114103 49 244 11.0 18.0 0.00 0.00 0.00 81 1016.7
20260509114016 49 243 9.0 16.0 0.00 0.00 0.00 81 1016.8
20260509114006 49 241 9.0 16.0 0.00 0.00 0.00 81 1016.8
20260509113903 49 245 8.0 16.0 0.00 0.00 0.00 81 1016.8
20260509113704 49 242 9.0 14.0 0.00 0.00 0.00 82 1016.6
20260509113603 49 239 8.0 14.0 0.00 0.00 0.00 82 1016.7
20260509113509 49 243 5.0 11.0 0.00 0.00 0.00 82 1016.7
20260509113403 49 238 6.0 17.0 0.00 0.00 0.00 82 1016.6
20260509113316 49 240 6.0 17.0 0.00 0.00 0.00 82 1016.6
20260509113304 49 239 6.0 17.0 0.00 0.00 0.00 82 1016.6
20260509113204 49 233 6.0 17.0 0.00 0.00 0.00 82 1016.7
20260509113113 49 232 6.0 17.0 0.00 0.00 0.00 82 1016.5
20260509113005 49 225 8.0 17.0 0.00 0.00 0.00 82 1016.6
20260509112803 49 230 7.0 20.0 0.00 0.00 0.00 82 1016.6
20260509112703 49 222 6.0 20.0 0.00 0.00 0.00 82 1016.8
20260509112604 49 231 11.0 20.0 0.00 0.00 0.00 82 1016.5
20260509112404 49 243 10.0 20.0 0.00 0.00 0.00 82 1016.7
20260509112306 49 242 12.0 18.0 0.00 0.00 0.00 82 1016.8
20260509112203 49 269 6.0 17.0 0.00 0.00 0.00 82 1016.7
20260509112105 49 265 6.0 17.0 0.00 0.00 0.00 82 1016.4
20260509112003 49 253 9.0 17.0 0.00 0.00 0.00 82 1016.4
20260509111904 49 244 12.0 16.0 0.00 0.00 0.00 82 1016.4
20260509111803 49 245 9.0 16.0 0.00 0.00 0.00 82 1016.5
20260509111703 49 231 9.0 16.0 0.00 0.00 0.00 82 1016.7
20260509111603 49 227 7.0 15.0 0.00 0.00 0.00 82 1016.4
20260509111506 49 236 7.0 15.0 0.00 0.00 0.00 82 1016.5
20260509111403 49 243 8.0 15.0 0.00 0.00 0.00 82 1016.4
20260509111303 49 246 10.0 15.0 0.00 0.00 0.00 82 1016.5
20260509111204 49 239 6.0 13.0 0.00 0.00 0.00 82 1016.6
20260509111104 49 241 7.0 13.0 0.00 0.00 0.00 82 1016.4
20260509111005 49 240 7.0 18.0 0.00 0.00 0.00 83 1016.4
20260509110903 49 246 6.0 18.0 0.00 0.00 0.00 83 1016.4
20260509110804 49 247 5.0 18.0 0.00 0.00 0.00 83 1016.5
20260509110704 49 253 5.0 18.0 0.00 0.00 0.00 83 1016.4
20260509110604 49 252 10.0 18.0 0.00 0.00 0.00 83 1016.5
20260509110504 49 250 6.0 18.0 0.00 0.00 0.00 83 1016.4
20260509110415 49 244 13.0 18.0 0.00 0.00 0.00 83 1016.3
20260509110403 49 243 13.0 18.0 0.00 0.00 0.00 83 1016.3
20260509110305 49 238 8.0 16.0 0.00 0.00 0.00 83 1016.4
20260509110104 49 219 5.0 14.0 0.00 0.00 0.00 83 1016.2
20260509110005 48 218 7.0 14.0 0.00 0.00 0.00 84 1016.2
20260509105904 48 221 10.0 14.0 0.00 0.00 0.00 84 1016.2
20260509105803 48 224 10.0 14.0 0.00 0.00 0.00 84 1016.3
20260509105703 48 223 9.0 14.0 0.00 0.00 0.00 84 1016.2
20260509105604 48 230 9.0 14.0 0.00 0.00 0.00 85 1016.2
20260509105504 48 234 8.0 14.0 0.00 0.00 0.00 85 1016.1
20260509105416 48 235 7.0 13.0 0.00 0.00 0.00 85 1016.2
20260509105406 48 234 8.0 13.0 0.00 0.00 0.00 85 1016.2
20260509105306 48 231 4.0 13.0 0.00 0.00 0.00 86 1016.3
20260509105213 48 236 5.0 17.0 0.00 0.00 0.00 86 1016.2
20260509105104 48 242 7.0 17.0 0.00 0.00 0.00 86 1016.2
20260509104803 48 243 4.0 17.0 0.00 0.00 0.00 87 1016.1
20260509104703 48 241 8.0 17.0 0.00 0.00 0.00 87 1015.9
20260509104605 48 235 6.0 11.0 0.00 0.00 0.00 87 1016.2
20260509104503 48 230 7.0 11.0 0.00 0.00 0.00 87 1016.1
20260509104403 47 229 7.0 11.0 0.00 0.00 0.00 87 1016.1
20260509104303 47 233 6.0 17.0 0.00 0.00 0.00 88 1016.2
20260509104204 47 240 6.0 17.0 0.00 0.00 0.00 88 1016.1
20260509104109 47 247 7.0 17.0 0.00 0.00 0.00 87 1015.9
20260509104004 47 250 6.0 17.0 0.00 0.00 0.00 87 1016.2
20260509103903 47 243 4.0 17.0 0.00 0.00 0.00 87 1016.2
20260509103803 47 241 8.0 17.0 0.00 0.00 0.00 87 1016.0
20260509103704 47 235 8.0 16.0 0.00 0.00 0.00 87 1016.1
20260509103603 47 228 10.0 16.0 0.00 0.00 0.00 87 1016.0
20260509103505 48 227 8.0 16.0 0.00 0.00 0.00 87 1016.1
20260509103403 48 232 5.0 16.0 0.00 0.00 0.00 87 1015.9
20260509103306 48 230 8.0 16.0 0.00 0.00 0.00 87 1016.1
20260509103207 48 235 11.0 16.0 0.00 0.00 0.00 86 1015.8
20260509103103 48 240 7.0 16.0 0.00 0.00 0.00 86 1016.0
20260509103004 48 232 8.0 16.0 0.00 0.00 0.00 86 1016.1
20260509102903 48 227 8.0 16.0 0.00 0.00 0.00 86 1016.1
20260509102803 48 226 9.0 16.0 0.00 0.00 0.00 85 1016.1
20260509102703 48 227 6.0 15.0 0.00 0.00 0.00 85 1016.2
20260509102605 48 232 8.0 16.0 0.00 0.00 0.00 85 1016.1
20260509102503 48 243 8.0 16.0 0.00 0.00 0.00 85 1016.0
20260509102403 48 245 6.0 16.0 0.00 0.00 0.00 85 1016.0
20260509102306 48 248 8.0 16.0 0.00 0.00 0.00 84 1016.0
20260509102203 48 249 8.0 16.0 0.00 0.00 0.00 84 1015.8
20260509102106 48 243 9.0 16.0 0.00 0.00 0.00 84 1016.1
20260509102003 48 240 8.0 16.0 0.00 0.00 0.00 84 1015.8
20260509101906 48 246 11.0 16.0 0.00 0.00 0.00 84 1015.8
20260509101803 48 241 8.0 14.0 0.00 0.00 0.00 84 1016.1
20260509101703 48 236 8.0 14.0 0.00 0.00 0.00 84 1015.8
20260509101605 48 215 8.0 18.0 0.00 0.00 0.00 84 1015.9
20260509101504 48 215 8.0 20.0 0.00 0.00 0.00 84 1015.9
20260509101403 48 208 8.0 20.0 0.00 0.00 0.00 84 1016.0
20260509101306 49 211 6.0 20.0 0.00 0.00 0.00 84 1015.8
20260509101104 48 229 9.0 20.0 0.00 0.00 0.00 84 1015.9
20260509101003 49 237 8.0 13.0 0.00 0.00 0.00 84 1015.9
20260509100903 49 238 8.0 13.0 0.00 0.00 0.00 84 1015.7
20260509100804 49 240 6.0 13.0 0.00 0.00 0.00 84 1015.7
20260509100704 49 241 8.0 13.0 0.00 0.00 0.00 84 1015.7
20260509100619 49 241 7.0 13.0 0.00 0.00 0.00 84 1015.8
20260509100603 49 241 5.0 13.0 0.00 0.00 0.00 84 1015.6
20260509100504 49 242 6.0 13.0 0.00 0.00 0.00 83 1015.7
20260509100305 49 246 7.0 13.0 0.00 0.00 0.00 84 1015.6
20260509100218 49 240 8.0 13.0 0.00 0.00 0.00 84 1015.6
20260509100205 49 239 8.0 13.0 0.00 0.00 0.00 84 1015.5
20260509100104 49 236 8.0 11.0 0.00 0.00 0.00 84 1015.6
20260509095904 49 235 8.0 11.0 0.00 0.00 0.00 84 1015.5
20260509095804 49 226 8.0 11.0 0.00 0.00 0.00 84 1015.6
20260509095603 48 236 7.0 11.0 0.00 0.00 0.00 85 1015.4
20260509095505 48 243 5.0 11.0 0.00 0.00 0.00 85 1015.6
20260509095417 48 244 4.0 11.0 0.00 0.00 0.00 85 1015.7
20260509095404 48 240 3.0 20.0 0.00 0.00 0.00 85 1015.5
20260509095306 48 238 7.0 20.0 0.00 0.00 0.00 85 1015.7
20260509095219 49 241 5.0 20.0 0.00 0.00 0.00 85 1015.6
20260509095104 48 241 8.0 20.0 0.00 0.00 0.00 85 1015.3
20260509095016 48 237 7.0 20.0 0.00 0.00 0.00 85 1015.5
20260509094905 48 240 9.0 20.0 0.00 0.00 0.00 85 1015.3
20260509094704 48 247 8.0 13.0 0.00 0.00 0.00 85 1015.5
20260509094606 48 241 8.0 13.0 0.00 0.00 0.00 85 1015.5
20260509094504 48 239 8.0 13.0 0.00 0.00 0.00 85 1015.6
20260509094403 48 229 8.0 13.0 0.00 0.00 0.00 85 1015.5
20260509094303 48 229 5.0 13.0 0.00 0.00 0.00 85 1015.4
20260509094204 48 230 8.0 15.0 0.00 0.00 0.00 85 1015.5
20260509094103 48 237 7.0 15.0 0.00 0.00 0.00 85 1015.5
20260509094005 48 235 4.0 17.0 0.00 0.00 0.00 85 1015.4
20260509093903 48 237 10.0 17.0 0.00 0.00 0.00 85 1015.5
20260509093804 48 242 7.0 17.0 0.00 0.00 0.00 85 1015.3
20260509093705 48 238 11.0 17.0 0.00 0.00 0.00 86 1015.3
20260509093505 48 235 11.0 17.0 0.00 0.00 0.00 86 1015.2
20260509093403 48 239 11.0 16.0 0.00 0.00 0.00 87 1015.4
20260509093303 48 227 8.0 14.0 0.00 0.00 0.00 87 1015.2
20260509093204 48 229 6.0 14.0 0.00 0.00 0.00 87 1015.3
20260509093103 48 233 6.0 14.0 0.00 0.00 0.00 87 1015.2
20260509093003 48 221 8.0 15.0 0.00 0.00 0.00 88 1015.3
20260509092803 48 239 4.0 16.0 0.00 0.00 0.00 88 1015.2
20260509092705 48 231 4.0 16.0 0.00 0.00 0.00 88 1015.1
20260509092603 48 223 8.0 18.0 0.00 0.00 0.00 88 1015.0
20260509092503 48 231 8.0 18.0 0.00 0.00 0.00 89 1015.2
20260509092403 48 227 11.0 18.0 0.00 0.00 0.00 89 1015.1
20260509092305 48 222 6.0 18.0 0.00 0.00 0.00 89 1015.4
20260509092203 48 227 11.0 18.0 0.00 0.00 0.00 89 1015.1
20260509092115 48 229 7.0 14.0 0.00 0.00 0.00 89 1014.9
20260509092104 48 231 7.0 14.0 0.00 0.00 0.00 89 1014.9
20260509092004 48 233 8.0 14.0 0.00 0.00 0.00 89 1015.1
20260509091816 48 234 8.0 14.0 0.00 0.00 0.00 89 1014.9
20260509091804 48 235 6.0 13.0 0.00 0.00 0.00 89 1015.0
20260509091705 48 234 8.0 13.0 0.00 0.00 0.00 89 1014.9
20260509091504 48 219 8.0 16.0 0.00 0.00 0.00 89 1014.9
20260509091404 48 213 4.0 16.0 0.00 0.00 0.00 89 1014.8
20260509091303 48 207 4.0 16.0 0.00 0.00 0.00 89 1014.9
20260509091205 48 211 5.0 16.0 0.00 0.00 0.00 89 1014.8
20260509091105 48 219 7.0 21.0 0.00 0.00 0.00 88 1014.9
20260509091003 48 224 9.0 21.0 0.00 0.00 0.00 88 1014.5
20260509090905 48 228 5.0 21.0 0.00 0.00 0.00 88 1014.5
20260509090804 48 230 5.0 21.0 0.00 0.00 0.00 87 1014.5
20260509090704 48 229 7.0 21.0 0.00 0.00 0.00 87 1014.5
20260509090604 48 229 8.0 17.0 0.00 0.00 0.00 87 1014.5
20260509090504 48 229 9.0 17.0 0.00 0.00 0.00 87 1014.5
20260509090405 48 230 10.0 17.0 0.00 0.00 0.00 86 1014.5
20260509090304 48 233 9.0 17.0 0.00 0.00 0.00 86 1014.5
20260509090203 49 250 8.0 18.0 0.00 0.00 0.00 86 1014.5
20260509090104 49 264 10.0 18.0 0.00 0.00 0.00 85 1014.5
20260509090016 49 267 8.0 18.0 0.00 0.00 0.00 85 1014.5
20260509085903 49 264 7.0 18.0 0.00 0.00 0.00 85 1014.4
20260509085603 49 235 8.0 16.0 0.00 0.00 0.00 85 1014.5
20260509085505 49 234 7.0 16.0 0.00 0.00 0.00 85 1014.5
20260509085403 49 234 8.0 16.0 0.00 0.00 0.00 84 1014.2
20260509085306 49 215 5.0 15.0 0.00 0.00 0.00 84 1014.1
20260509085203 49 223 10.0 20.0 0.00 0.00 0.00 84 1014.1
20260509085104 49 232 10.0 20.0 0.00 0.00 0.00 84 1014.1
20260509085003 49 230 8.0 20.0 0.00 0.00 0.00 84 1014.1
20260509084903 49 233 9.0 20.0 0.00 0.00 0.00 84 1014.1
20260509084814 49 234 8.0 20.0 0.00 0.00 0.00 84 1014.1
20260509084804 49 233 8.0 20.0 0.00 0.00 0.00 84 1014.1
20260509084703 49 236 11.0 20.0 0.00 0.00 0.00 84 1014.1
20260509084503 49 229 4.0 18.0 0.00 0.00 0.00 84 1014.1
20260509084405 49 231 8.0 18.0 0.00 0.00 0.00 84 1014.1
20260509084303 49 237 9.0 18.0 0.00 0.00 0.00 84 1014.1
20260509084203 49 235 11.0 18.0 0.00 0.00 0.00 84 1014.1
20260509084106 49 241 9.0 16.0 0.00 0.00 0.00 84 1014.1
20260509084003 49 237 10.0 15.0 0.00 0.00 0.00 84 1014.1
20260509083904 49 236 8.0 15.0 0.00 0.00 0.00 84 1014.1
20260509083804 49 233 8.0 16.0 0.00 0.00 0.00 84 1014.1
20260509083703 49 237 9.0 16.0 0.00 0.00 0.00 84 1014.1
20260509083617 49 235 8.0 16.0 0.00 0.00 0.00 84 1014.1
20260509083605 49 233 8.0 16.0 0.00 0.00 0.00 84 1014.1
20260509083503 49 237 7.0 16.0 0.00 0.00 0.00 84 1014.1
20260509083303 49 238 7.0 13.0 0.00 0.00 0.00 84 1014.1
20260509083203 49 233 8.0 14.0 0.00 0.00 0.00 84 1014.1
20260509083105 49 236 7.0 14.0 0.00 0.00 0.00 84 1014.1
20260509083004 49 246 8.0 14.0 0.00 0.00 0.00 84 1014.4
20260509082904 49 246 8.0 17.0 0.00 0.00 0.00 84 1014.1
20260509082804 49 248 6.0 17.0 0.00 0.00 0.00 84 1014.1
20260509082704 49 249 10.0 17.0 0.00 0.00 0.00 84 1014.2
20260509082605 49 246 6.0 17.0 0.00 0.00 0.00 84 1013.9
20260509082505 49 236 5.0 17.0 0.00 0.00 0.00 84 1014.2
20260509082405 49 235 10.0 17.0 0.00 0.00 0.00 84 1014.1
20260509082306 49 234 10.0 17.0 0.00 0.00 0.00 84 1014.1
20260509082205 48 234 7.0 13.0 0.00 0.00 0.00 84 1014.0
20260509082116 48 240 9.0 13.0 0.00 0.00 0.00 84 1014.0
20260509082103 48 241 9.0 13.0 0.00 0.00 0.00 84 1014.0
20260509082004 48 252 6.0 13.0 0.00 0.00 0.00 84 1014.0
20260509081805 48 253 5.0 15.0 0.00 0.00 0.00 85 1014.0
20260509081705 48 255 7.0 15.0 0.00 0.00 0.00 85 1014.0
20260509081603 48 252 4.0 15.0 0.00 0.00 0.00 85 1013.9
20260509081504 48 244 4.0 16.0 0.00 0.00 0.00 85 1013.8
20260509081416 48 241 7.0 16.0 0.00 0.00 0.00 85 1013.7
20260509081403 48 241 6.0 16.0 0.00 0.00 0.00 85 1013.9
20260509081304 48 240 10.0 16.0 0.00 0.00 0.00 85 1014.0
20260509081218 48 244 9.0 16.0 0.00 0.00 0.00 85 1013.8
20260509081105 48 236 8.0 16.0 0.00 0.00 0.00 85 1013.9
20260509080903 48 235 4.0 13.0 0.00 0.00 0.00 85 1013.9
20260509080804 48 235 6.0 13.0 0.00 0.00 0.00 85 1013.7
20260509080705 48 225 6.0 13.0 0.00 0.00 0.00 85 1013.6
20260509080604 48 227 7.0 13.0 0.00 0.00 0.00 85 1013.4
20260509080513 48 231 7.0 13.0 0.00 0.00 0.00 85 1013.5
20260509080504 48 232 7.0 13.0 0.00 0.00 0.00 85 1013.5
20260509080404 48 240 4.0 13.0 0.00 0.00 0.00 85 1013.7
20260509080204 48 254 7.0 15.0 0.00 0.00 0.00 85 1013.7
20260509080103 48 257 8.0 15.0 0.00 0.00 0.00 85 1013.3
20260509080004 48 257 7.0 15.0 0.00 0.00 0.00 85 1013.6
20260509075805 48 252 7.0 15.0 0.00 0.00 0.00 85 1013.6
20260509075703 48 239 6.0 15.0 0.00 0.00 0.00 85 1013.3
20260509075603 48 238 7.0 15.0 0.00 0.00 0.00 85 1013.3
20260509075503 48 241 7.0 15.0 0.00 0.00 0.00 85 1013.4
20260509075403 48 250 8.0 15.0 0.00 0.00 0.00 85 1013.6
20260509075307 48 238 9.0 15.0 0.00 0.00 0.00 85 1013.4
20260509075203 48 240 4.0 15.0 0.00 0.00 0.00 85 1013.4
20260509075104 48 236 4.0 15.0 0.00 0.00 0.00 85 1013.4
20260509075003 48 232 7.0 15.0 0.00 0.00 0.00 85 1013.0
20260509074905 48 220 9.0 15.0 0.00 0.00 0.00 85 1013.3
20260509074803 48 223 8.0 16.0 0.00 0.00 0.00 85 1013.2
20260509074703 48 229 8.0 16.0 0.00 0.00 0.00 85 1013.4
20260509074605 48 228 6.0 16.0 0.00 0.00 0.00 85 1013.4
20260509074503 48 225 8.0 17.0 0.00 0.00 0.00 85 1013.3
20260509074403 48 223 10.0 17.0 0.00 0.00 0.00 85 1013.2
20260509074305 48 229 9.0 17.0 0.00 0.00 0.00 85 1013.3
20260509074203 48 229 8.0 17.0 0.00 0.00 0.00 85 1013.1
20260509074103 48 233 7.0 17.0 0.00 0.00 0.00 85 1013.3
20260509074003 48 237 11.0 17.0 0.00 0.00 0.00 85 1013.2
20260509073907 48 244 11.0 17.0 0.00 0.00 0.00 85 1013.1
20260509073803 48 250 8.0 11.0 0.00 0.00 0.00 85 1013.2
20260509073707 48 245 6.0 11.0 0.00 0.00 0.00 84 1013.2
20260509073504 48 256 7.0 11.0 0.00 0.00 0.00 84 1013.1
20260509073405 48 255 7.0 13.0 0.00 0.00 0.00 84 1013.0
20260509073305 48 252 4.0 13.0 0.00 0.00 0.00 84 1013.0
20260509073204 48 256 7.0 13.0 0.00 0.00 0.00 84 1013.0
20260509073105 48 253 7.0 13.0 0.00 0.00 0.00 84 1013.0
20260509073005 48 247 9.0 13.0 0.00 0.00 0.00 84 1012.9
20260509072904 48 253 8.0 14.0 0.00 0.00 0.00 84 1012.9
20260509072804 48 255 7.0 15.0 0.00 0.00 0.00 84 1013.1
20260509072705 48 255 5.0 15.0 0.00 0.00 0.00 84 1012.9
20260509072606 48 257 7.0 15.0 0.00 0.00 0.00 84 1012.9
20260509072504 48 261 8.0 15.0 0.00 0.00 0.00 84 1012.9
20260509072404 48 255 7.0 15.0 0.00 0.00 0.00 84 1012.7
20260509072306 48 252 8.0 15.0 0.00 0.00 0.00 84 1013.1
20260509072207 47 246 6.0 15.0 0.00 0.00 0.00 84 1013.0
20260509072117 47 246 9.0 15.0 0.00 0.00 0.00 84 1012.7
20260509072106 47 245 9.0 15.0 0.00 0.00 0.00 84 1012.7
20260509071803 47 233 6.0 14.0 0.00 0.00 0.00 84 1012.7
20260509071705 47 239 8.0 14.0 0.00 0.00 0.00 84 1012.8
20260509071603 47 241 8.0 14.0 0.00 0.00 0.00 84 1012.7
20260509071505 47 241 8.0 14.0 0.00 0.00 0.00 84 1012.7
20260509071404 47 247 6.0 14.0 0.00 0.00 0.00 84 1012.6
20260509071305 47 244 8.0 14.0 0.00 0.00 0.00 84 1012.8
20260509071205 47 242 7.0 16.0 0.00 0.00 0.00 84 1012.6
20260509071103 47 234 8.0 16.0 0.00 0.00 0.00 84 1012.6
20260509071016 47 234 9.0 16.0 0.00 0.00 0.00 84 1012.6
20260509071004 47 235 7.0 16.0 0.00 0.00 0.00 84 1012.7
20260509070904 47 237 8.0 16.0 0.00 0.00 0.00 84 1012.8
20260509070704 47 230 10.0 16.0 0.00 0.00 0.00 83 1012.5
20260509070603 47 234 10.0 15.0 0.00 0.00 0.00 83 1012.5
20260509070503 47 230 4.0 15.0 0.00 0.00 0.00 83 1012.7
20260509070403 47 219 5.0 15.0 0.00 0.00 0.00 83 1012.5
20260509070304 47 221 10.0 15.0 0.00 0.00 0.00 83 1012.4
20260509070203 47 225 8.0 15.0 0.00 0.00 0.00 83 1012.4
20260509070105 47 227 9.0 15.0 0.00 0.00 0.00 83 1012.5
20260509070004 47 229 7.0 13.0 0.00 0.00 0.00 83 1012.6
20260509065904 47 237 8.0 13.0 0.00 0.00 0.00 83 1012.3
20260509065803 47 235 8.0 16.0 0.00 0.00 0.00 83 1012.7
20260509065703 47 218 7.0 16.0 0.00 0.00 0.00 83 1012.5
20260509065605 47 211 8.0 16.0 0.00 0.00 0.00 83 1012.2
20260509065503 47 208 8.0 16.0 0.00 0.00 0.00 83 1012.4
20260509065403 47 209 6.0 17.0 0.00 0.00 0.00 83 1012.4
20260509065317 47 209 9.0 17.0 0.00 0.00 0.00 83 1012.4
20260509065203 47 224 10.0 17.0 0.00 0.00 0.00 83 1012.6
20260509065003 47 231 6.0 17.0 0.00 0.00 0.00 83 1012.2
20260509064905 47 231 9.0 17.0 0.00 0.00 0.00 83 1012.4
20260509064803 47 232 8.0 17.0 0.00 0.00 0.00 83 1012.6
20260509064704 47 231 7.0 17.0 0.00 0.00 0.00 83 1012.5
20260509064603 47 236 4.0 15.0 0.00 0.00 0.00 83 1012.4
20260509064403 47 252 7.0 15.0 0.00 0.00 0.00 83 1012.3
20260509064303 47 244 8.0 15.0 0.00 0.00 0.00 83 1012.3
20260509064217 47 246 4.0 15.0 0.00 0.00 0.00 82 1012.4
20260509064205 47 245 7.0 15.0 0.00 0.00 0.00 82 1012.2
20260509064104 47 235 8.0 15.0 0.00 0.00 0.00 82 1012.5
20260509063905 47 216 7.0 16.0 0.00 0.00 0.00 82 1012.6
20260509063804 47 226 4.0 16.0 0.00 0.00 0.00 82 1012.5
20260509063704 47 226 6.0 16.0 0.00 0.00 0.00 82 1012.5
20260509063613 47 227 6.0 16.0 0.00 0.00 0.00 82 1012.5
20260509063605 47 228 6.0 16.0 0.00 0.00 0.00 82 1012.5
20260509063503 47 227 6.0 22.0 0.00 0.00 0.00 82 1012.5
20260509063204 47 228 8.0 22.0 0.00 0.00 0.00 81 1012.5
20260509063105 47 232 7.0 22.0 0.00 0.00 0.00 81 1012.5
20260509063005 47 234 8.0 17.0 0.00 0.00 0.00 81 1012.5
20260509062919 47 242 9.0 17.0 0.00 0.00 0.00 81 1012.5
20260509062903 47 247 9.0 17.0 0.00 0.00 0.00 81 1012.5
20260509062803 47 256 10.0 17.0 0.00 0.00 0.00 81 1012.5
20260509062604 47 248 10.0 15.0 0.00 0.00 0.00 80 1012.5
20260509062504 47 249 6.0 14.0 0.00 0.00 0.00 80 1012.5
20260509062404 47 239 8.0 16.0 0.00 0.00 0.00 80 1012.5
20260509062306 47 233 8.0 17.0 0.00 0.00 0.00 80 1012.5
20260509062206 47 233 10.0 18.0 0.00 0.00 0.00 79 1012.5
20260509062104 47 234 5.0 18.0 0.00 0.00 0.00 79 1012.5
20260509062003 47 232 8.0 18.0 0.00 0.00 0.00 79 1012.5
20260509061904 47 236 8.0 18.0 0.00 0.00 0.00 79 1012.5
20260509061804 47 232 11.0 18.0 0.00 0.00 0.00 79 1012.3
20260509061606 47 236 8.0 18.0 0.00 0.00 0.00 78 1012.5
20260509061504 47 237 11.0 18.0 0.00 0.00 0.00 78 1012.3
20260509061403 47 241 11.0 17.0 0.00 0.00 0.00 77 1012.0
20260509061205 47 249 7.0 14.0 0.00 0.00 0.00 77 1012.3
20260509061103 47 242 5.0 17.0 0.00 0.00 0.00 77 1012.4
20260509060903 47 242 8.0 17.0 0.00 0.00 0.00 77 1012.2
20260509060803 47 224 8.0 18.0 0.00 0.00 0.00 76 1012.2
20260509060703 47 230 7.0 18.0 0.00 0.00 0.00 76 1012.6
20260509060603 47 232 11.0 18.0 0.00 0.00 0.00 76 1012.2
20260509060503 47 224 5.0 18.0 0.00 0.00 0.00 76 1012.2
20260509060404 47 224 8.0 18.0 0.00 0.00 0.00 76 1012.4
20260509060304 47 240 11.0 18.0 0.00 0.00 0.00 76 1012.4
20260509060203 47 243 4.0 16.0 0.00 0.00 0.00 75 1012.3
20260509060007 47 232 6.0 16.0 0.00 0.00 0.00 75 1012.3
20260509055905 47 232 6.0 16.0 0.00 0.00 0.00 75 1012.2
20260509055703 47 224 6.0 16.0 0.00 0.00 0.00 75 1012.1
20260509055604 47 231 7.0 14.0 0.00 0.00 0.00 75 1012.3
20260509055503 47 234 7.0 14.0 0.00 0.00 0.00 75 1012.4
20260509055403 47 236 7.0 14.0 0.00 0.00 0.00 75 1012.1
20260509055306 47 233 7.0 16.0 0.00 0.00 0.00 74 1012.5
20260509055204 47 234 8.0 16.0 0.00 0.00 0.00 74 1012.3
20260509055105 47 235 8.0 16.0 0.00 0.00 0.00 74 1012.4
20260509055004 47 239 9.0 16.0 0.00 0.00 0.00 74 1012.3
20260509054904 47 240 8.0 16.0 0.00 0.00 0.00 74 1012.4
20260509054804 47 244 8.0 16.0 0.00 0.00 0.00 74 1012.3
20260509054704 47 245 7.0 16.0 0.00 0.00 0.00 74 1012.0
20260509054605 47 244 6.0 16.0 0.00 0.00 0.00 73 1012.3
20260509054517 47 244 7.0 16.0 0.00 0.00 0.00 73 1012.2
20260509054504 47 243 7.0 16.0 0.00 0.00 0.00 73 1012.2
20260509054403 47 252 8.0 16.0 0.00 0.00 0.00 73 1012.2
20260509054217 47 269 10.0 16.0 0.00 0.00 0.00 73 1012.4
20260509054207 47 269 7.0 16.0 0.00 0.00 0.00 73 1012.0
20260509054104 47 270 6.0 13.0 0.00 0.00 0.00 73 1012.1
20260509053904 47 265 8.0 13.0 0.00 0.00 0.00 73 1012.3
20260509053805 47 254 9.0 13.0 0.00 0.00 0.00 72 1012.3
20260509053715 47 245 8.0 15.0 0.00 0.00 0.00 72 1012.1
20260509053705 47 243 8.0 15.0 0.00 0.00 0.00 72 1012.1
20260509053606 47 238 8.0 16.0 0.00 0.00 0.00 72 1012.2
20260509053517 47 240 8.0 17.0 0.00 0.00 0.00 72 1012.2
20260509053403 47 235 7.0 17.0 0.00 0.00 0.00 72 1012.3
20260509053204 47 235 8.0 17.0 0.00 0.00 0.00 72 1012.1
20260509053103 47 242 8.0 17.0 0.00 0.00 0.00 71 1012.2
20260509053005 47 242 10.0 14.0 0.00 0.00 0.00 71 1012.1
20260509052914 47 244 8.0 14.0 0.00 0.00 0.00 71 1012.4
20260509052904 47 242 8.0 14.0 0.00 0.00 0.00 71 1012.4
20260509052812 47 236 7.0 14.0 0.00 0.00 0.00 71 1012.2
20260509052604 47 230 4.0 8.0 0.00 0.00 0.00 71 1012.2
20260509052505 47 226 4.0 7.0 0.00 0.00 0.00 71 1011.9
20260509052417 47 240 3.0 11.0 0.00 0.00 0.00 71 1012.1
20260509052307 47 253 3.0 11.0 0.00 0.00 0.00 71 1012.1
20260509052118 47 256 4.0 14.0 0.00 0.00 0.00 71 1012.2
20260509052106 47 254 4.0 14.0 0.00 0.00 0.00 71 1012.2
20260509052003 47 252 4.0 14.0 0.00 0.00 0.00 71 1011.7